Wetterdaten: Sonntag, 17.01.2016
Datum Zeit Temp. Aussen Temp. o. S. +5cm Feuchte Auss BlattFeu 1 Luftdruck Regen Sonnenschein Regendauer Solar Windben Empfang
17.01.2016 00:00 0,2 C 0,0 C -1,1 C 94 % 15 lf 1022,0 hPa 0,0 l/m 0 min 0 min 0 W/m 16,7 km/h (3 Bft) 91,49 %
17.01.2016 00:02 0,2 C 0,0 C -1,1 C 94 % 14 lf 1022,1 hPa 0,0 l/m 0 min 0 min 0 W/m 23,0 km/h (4 Bft) 95,12 %
17.01.2016 00:06 0,2 C 0,0 C -1,1 C 94 % 12 lf 1022,1 hPa 0,0 l/m 0 min 0 min 0 W/m 18,8 km/h (3 Bft) 97,89 %
17.01.2016 00:08 0,2 C 0,0 C -1,1 C 94 % 12 lf 1022,1 hPa 0,0 l/m 0 min 0 min 0 W/m 14,6 km/h (3 Bft) 93,62 %
17.01.2016 00:10 0,2 C 0,0 C -1,1 C 94 % 10 lf 1022,1 hPa 0,0 l/m 0 min 0 min 0 W/m 12,6 km/h (3 Bft) 95,74 %
17.01.2016 00:12 0,1 C 0,0 C -1,1 C 94 % 8 lf 1022,1 hPa 0,0 l/m 0 min 0 min 0 W/m 16,7 km/h (3 Bft) 95,74 %
17.01.2016 00:14 0,1 C 0,0 C -1,1 C 94 % 5 lf 1022,1 hPa 0,0 l/m 0 min 0 min 0 W/m 12,6 km/h (3 Bft) 95,65 %
17.01.2016 00:16 0,1 C 0,0 C -1,1 C 94 % 4 lf 1022,0 hPa 0,0 l/m 0 min 0 min 0 W/m 14,6 km/h (3 Bft) 89,36 %
17.01.2016 00:18 0,1 C 0,0 C -1,1 C 94 % 3 lf 1022,0 hPa 0,0 l/m 0 min 0 min 0 W/m 14,6 km/h (3 Bft) 95,74 %
17.01.2016 00:20 0,1 C 0,0 C -1,1 C 94 % 4 lf 1022,0 hPa 0,0 l/m 0 min 0 min 0 W/m 16,7 km/h (3 Bft) 95,74 %
17.01.2016 00:22 0,1 C 0,0 C -1,1 C 94 % 5 lf 1022,1 hPa 0,0 l/m 0 min 0 min 0 W/m 12,6 km/h (3 Bft) 95,74 %
17.01.2016 00:24 0,1 C 0,0 C -1,1 C 94 % 6 lf 1022,0 hPa 0,0 l/m 0 min 0 min 0 W/m 14,6 km/h (3 Bft) 93,62 %
17.01.2016 00:26 0,1 C 0,0 C -1,1 C 94 % 8 lf 1022,0 hPa 0,0 l/m 0 min 0 min 0 W/m 18,8 km/h (3 Bft) 95,65 %
17.01.2016 00:28 0,1 C 0,0 C -1,1 C 94 % 11 lf 1022,0 hPa 0,0 l/m 0 min 0 min 0 W/m 16,7 km/h (3 Bft) 93,62 %
17.01.2016 00:30 0,1 C 0,0 C -1,1 C 94 % 13 lf 1022,0 hPa 0,0 l/m 0 min 0 min 0 W/m 20,9 km/h (4 Bft) 93,62 %
17.01.2016 00:32 0,1 C 0,0 C -0,6 C 94 % 15 lf 1022,0 hPa 0,0 l/m 0 min 0 min 0 W/m 16,7 km/h (3 Bft) 91,49 %
17.01.2016 00:34 0,1 C 0,0 C -0,6 C 94 % 15 lf 1022,1 hPa 0,0 l/m 0 min 0 min 0 W/m 14,6 km/h (3 Bft) 95,74 %
17.01.2016 00:36 0,1 C 0,0 C -0,6 C 94 % 15 lf 1022,1 hPa 0,0 l/m 0 min 0 min 0 W/m 18,8 km/h (3 Bft) 93,62 %
17.01.2016 00:38 0,1 C 0,6 C -0,6 C 94 % 15 lf 1022,1 hPa 0,0 l/m 0 min 0 min 0 W/m 14,6 km/h (3 Bft) 93,48 %
17.01.2016 00:40 0,2 C 0,6 C -0,6 C 95 % 15 lf 1022,1 hPa 0,0 l/m 0 min 0 min 0 W/m 12,6 km/h (3 Bft) 93,62 %
17.01.2016 00:42 0,2 C 0,6 C -0,6 C 95 % 15 lf 1022,1 hPa 0,0 l/m 0 min 0 min 0 W/m 12,6 km/h (3 Bft) 97,87 %
17.01.2016 00:44 0,2 C 0,0 C -1,1 C 95 % 15 lf 1022,0 hPa 0,0 l/m 0 min 0 min 0 W/m 10,5 km/h (2 Bft) 100,00 %
17.01.2016 00:46 0,2 C 0,0 C -1,1 C 95 % 15 lf 1022,0 hPa 0,0 l/m 0 min 0 min 0 W/m 12,6 km/h (3 Bft) 100,00 %
17.01.2016 00:48 0,2 C 0,0 C -1,1 C 95 % 15 lf 1021,9 hPa 0,0 l/m 0 min 0 min 0 W/m 10,5 km/h (2 Bft) 97,87 %
17.01.2016 00:50 0,2 C 0,0 C -1,1 C 95 % 15 lf 1021,9 hPa 0,0 l/m 0 min 0 min 0 W/m 8,4 km/h (2 Bft) 97,83 %
17.01.2016 00:52 0,2 C 0,0 C -1,1 C 95 % 15 lf 1021,9 hPa 0,0 l/m 0 min 0 min 0 W/m 10,5 km/h (2 Bft) 95,74 %
17.01.2016 00:54 0,2 C 0,0 C -1,1 C 95 % 15 lf 1021,8 hPa 0,0 l/m 0 min 0 min 0 W/m 8,4 km/h (2 Bft) 97,87 %
17.01.2016 00:56 0,2 C 0,0 C -0,6 C 95 % 15 lf 1021,8 hPa 0,0 l/m 0 min 0 min 0 W/m 8,4 km/h (2 Bft) 93,62 %
17.01.2016 00:58 0,2 C 0,0 C -0,6 C 95 % 15 lf 1021,9 hPa 0,0 l/m 0 min 0 min 0 W/m 10,5 km/h (2 Bft) 97,87 %
17.01.2016 01:00 0,2 C 0,6 C -0,6 C 95 % 15 lf 1021,9 hPa 0,0 l/m 0 min 0 min 0 W/m 10,5 km/h (2 Bft) 95,74 %
17.01.2016 01:02 0,2 C 0,6 C -0,6 C 95 % 15 lf 1021,8 hPa 0,0 l/m 0 min 0 min 0 W/m 10,5 km/h (2 Bft) 95,65 %
17.01.2016 01:04 0,2 C 0,6 C -0,6 C 95 % 15 lf 1021,9 hPa 0,0 l/m 0 min 0 min 0 W/m 12,6 km/h (3 Bft) 97,87 %
17.01.2016 01:06 0,2 C 0,6 C -0,6 C 95 % 15 lf 1021,8 hPa 0,0 l/m 0 min 0 min 0 W/m 10,5 km/h (2 Bft) 95,74 %
17.01.2016 01:08 0,3 C 0,6 C -0,6 C 95 % 15 lf 1021,8 hPa 0,0 l/m 0 min 0 min 0 W/m 14,6 km/h (3 Bft) 95,74 %
17.01.2016 01:10 0,3 C 0,6 C -0,6 C 95 % 15 lf 1021,9 hPa 0,0 l/m 0 min 0 min 0 W/m 14,6 km/h (3 Bft) 93,62 %
17.01.2016 01:12 0,3 C 0,6 C -0,6 C 95 % 15 lf 1021,8 hPa 0,0 l/m 0 min 0 min 0 W/m 18,8 km/h (3 Bft) 97,87 %
17.01.2016 01:14 0,3 C 0,6 C -0,6 C 95 % 15 lf 1021,9 hPa 0,0 l/m 0 min 0 min 0 W/m 20,9 km/h (4 Bft) 97,83 %
17.01.2016 01:16 0,3 C 0,6 C -0,6 C 95 % 15 lf 1021,9 hPa 0,0 l/m 0 min 2 min 0 W/m 12,6 km/h (3 Bft) 97,87 %
17.01.2016 01:18 0,3 C 0,6 C -0,6 C 95 % 15 lf 1021,9 hPa 0,0 l/m 0 min 0 min 0 W/m 14,6 km/h (3 Bft) 100,00 %
17.01.2016 01:20 0,4 C 0,6 C -0,6 C 95 % 15 lf 1021,9 hPa 0,0 l/m 0 min 2 min 0 W/m 20,9 km/h (4 Bft) 97,87 %
17.01.2016 01:22 0,4 C 0,6 C -0,6 C 95 % 15 lf 1021,8 hPa 0,0 l/m 0 min 0 min 0 W/m 14,6 km/h (3 Bft) 97,87 %
17.01.2016 01:24 0,4 C 0,6 C -0,6 C 95 % 15 lf 1021,8 hPa 0,0 l/m 0 min 0 min 0 W/m 23,0 km/h (4 Bft) 95,74 %
17.01.2016 01:26 0,4 C 0,6 C -0,6 C 95 % 15 lf 1021,8 hPa 0,0 l/m 0 min 0 min 0 W/m 18,8 km/h (3 Bft) 95,65 %
17.01.2016 01:28 0,4 C 0,6 C -0,6 C 95 % 15 lf 1021,7 hPa 0,0 l/m 0 min 0 min 0 W/m 18,8 km/h (3 Bft) 97,87 %
17.01.2016 01:30 0,4 C 0,6 C -0,6 C 95 % 15 lf 1021,7 hPa 0,0 l/m 0 min 0 min 0 W/m 16,7 km/h (3 Bft) 97,87 %
17.01.2016 01:32 0,4 C 0,6 C -0,6 C 95 % 15 lf 1021,7 hPa 0,0 l/m 0 min 0 min 0 W/m 25,1 km/h (4 Bft) 100,00 %
17.01.2016 01:34 0,4 C 0,6 C -0,6 C 95 % 15 lf 1021,7 hPa 0,0 l/m 0 min 0 min 0 W/m 12,6 km/h (3 Bft) 97,87 %
17.01.2016 01:36 0,4 C 0,6 C -0,6 C 95 % 15 lf 1021,7 hPa 0,0 l/m 0 min 0 min 0 W/m 23,0 km/h (4 Bft) 100,00 %
17.01.2016 01:38 0,4 C 0,6 C -0,6 C 95 % 15 lf 1021,6 hPa 0,0 l/m 0 min 0 min 0 W/m 16,7 km/h (3 Bft) 97,83 %
17.01.2016 01:40 0,4 C 0,6 C -0,6 C 95 % 15 lf 1021,5 hPa 0,0 l/m 0 min 0 min 0 W/m 18,8 km/h (3 Bft) 97,87 %
17.01.2016 01:42 0,4 C 0,6 C -0,6 C 95 % 15 lf 1021,6 hPa 0,0 l/m 0 min 0 min 0 W/m 18,8 km/h (3 Bft) 97,87 %
17.01.2016 01:44 0,4 C 0,6 C -0,6 C 95 % 15 lf 1021,6 hPa 0,0 l/m 0 min 2 min 0 W/m 20,9 km/h (4 Bft) 97,87 %
17.01.2016 01:46 0,4 C 0,6 C -0,6 C 95 % 15 lf 1021,6 hPa 0,0 l/m 0 min 2 min 0 W/m 27,2 km/h (4 Bft) 100,00 %
17.01.2016 01:48 0,4 C 0,6 C -0,6 C 95 % 15 lf 1021,7 hPa 0,0 l/m 0 min 0 min 0 W/m 16,7 km/h (3 Bft) 93,62 %
17.01.2016 01:50 0,4 C 0,6 C -0,6 C 95 % 15 lf 1021,7 hPa 0,0 l/m 0 min 0 min 0 W/m 18,8 km/h (3 Bft) 96,55 %
17.01.2016 01:52 0,4 C 0,6 C -0,6 C 95 % 15 lf 1021,7 hPa 0,0 l/m 0 min 0 min 0 W/m 16,7 km/h (3 Bft) 100,00 %
17.01.2016 01:54 0,4 C 0,6 C -0,6 C 95 % 15 lf 1021,8 hPa 0,0 l/m 0 min 0 min 0 W/m 27,2 km/h (4 Bft) 97,87 %
17.01.2016 01:56 0,4 C 0,6 C -0,6 C 95 % 15 lf 1021,8 hPa 0,0 l/m 0 min 0 min 0 W/m 25,1 km/h (4 Bft) 93,62 %
17.01.2016 01:58 0,4 C 0,6 C -0,6 C 95 % 15 lf 1021,8 hPa 0,0 l/m 0 min 0 min 0 W/m 27,2 km/h (4 Bft) 93,62 %
17.01.2016 02:00 0,4 C 0,6 C -0,6 C 95 % 15 lf 1021,8 hPa 0,0 l/m 0 min 0 min 0 W/m 18,8 km/h (3 Bft) 91,49 %
17.01.2016 02:02 0,4 C 0,6 C -0,6 C 95 % 15 lf 1021,7 hPa 0,0 l/m 0 min 0 min 0 W/m 25,1 km/h (4 Bft) 95,65 %
17.01.2016 02:04 0,4 C 0,6 C -0,6 C 95 % 15 lf 1021,7 hPa 0,0 l/m 0 min 2 min 0 W/m 23,0 km/h (4 Bft) 93,62 %
17.01.2016 02:06 0,4 C 0,6 C -0,6 C 95 % 15 lf 1021,7 hPa 0,0 l/m 0 min 0 min 0 W/m 20,9 km/h (4 Bft) 95,74 %
17.01.2016 02:08 0,4 C 0,6 C -0,6 C 95 % 15 lf 1021,8 hPa 0,0 l/m 0 min 0 min 0 W/m 18,8 km/h (3 Bft) 95,74 %
17.01.2016 02:10 0,4 C 0,6 C -0,6 C 95 % 15 lf 1021,8 hPa 0,0 l/m 0 min 0 min 0 W/m 25,1 km/h (4 Bft) 93,62 %
17.01.2016 02:12 0,4 C 0,6 C -0,6 C 95 % 15 lf 1021,8 hPa 0,0 l/m 0 min 2 min 0 W/m 16,7 km/h (3 Bft) 93,48 %
17.01.2016 02:14 0,4 C 0,6 C -0,6 C 95 % 15 lf 1021,8 hPa 0,0 l/m 0 min 0 min 0 W/m 23,0 km/h (4 Bft) 93,62 %
17.01.2016 02:16 0,4 C 0,6 C -0,6 C 95 % 15 lf 1021,8 hPa 0,0 l/m 0 min 0 min 0 W/m 18,8 km/h (3 Bft) 91,49 %
17.01.2016 02:18 0,4 C 0,6 C -0,6 C 95 % 15 lf 1021,7 hPa 0,0 l/m 0 min 0 min 0 W/m 16,7 km/h (3 Bft) 93,62 %
17.01.2016 02:20 0,4 C 0,6 C -0,6 C 95 % 15 lf 1021,7 hPa 0,0 l/m 0 min 0 min 0 W/m 18,8 km/h (3 Bft) 96,55 %
17.01.2016 02:22 0,4 C 0,6 C -0,6 C 95 % 15 lf 1021,7 hPa 0,0 l/m 0 min 0 min 0 W/m 16,7 km/h (3 Bft) 94,44 %
17.01.2016 02:24 0,4 C 0,6 C -0,6 C 95 % 15 lf 1021,8 hPa 0,0 l/m 0 min 0 min 0 W/m 18,8 km/h (3 Bft) 95,65 %
17.01.2016 02:26 0,4 C 0,6 C -1,1 C 95 % 15 lf 1021,7 hPa 0,0 l/m 0 min 2 min 0 W/m 18,8 km/h (3 Bft) 95,74 %
17.01.2016 02:28 0,3 C 0,0 C -1,1 C 95 % 15 lf 1021,8 hPa 0,0 l/m 0 min 0 min 0 W/m 16,7 km/h (3 Bft) 97,87 %
17.01.2016 02:30 0,3 C 0,0 C -1,1 C 95 % 14 lf 1021,7 hPa 0,0 l/m 0 min 0 min 0 W/m 16,7 km/h (3 Bft) 97,87 %
17.01.2016 02:32 0,3 C 0,0 C -1,1 C 95 % 12 lf 1021,8 hPa 0,0 l/m 0 min 0 min 0 W/m 20,9 km/h (4 Bft) 97,87 %
17.01.2016 02:34 0,3 C 0,0 C -1,1 C 95 % 10 lf 1021,8 hPa 0,0 l/m 0 min 0 min 0 W/m 16,7 km/h (3 Bft) 95,74 %
17.01.2016 02:36 0,3 C 0,0 C -1,1 C 95 % 12 lf 1021,8 hPa 0,0 l/m 0 min 0 min 0 W/m 25,1 km/h (4 Bft) 97,83 %
17.01.2016 02:38 0,3 C 0,0 C -1,1 C 95 % 11 lf 1021,9 hPa 0,0 l/m 0 min 0 min 0 W/m 20,9 km/h (4 Bft) 95,74 %
17.01.2016 02:40 0,3 C 0,0 C -1,1 C 95 % 11 lf 1021,8 hPa 0,0 l/m 0 min 0 min 0 W/m 16,7 km/h (3 Bft) 97,87 %
17.01.2016 02:42 0,3 C 0,6 C -0,6 C 95 % 14 lf 1022,0 hPa 0,0 l/m 0 min 0 min 0 W/m 25,1 km/h (4 Bft) 93,62 %
17.01.2016 02:44 0,3 C 0,6 C -0,6 C 95 % 15 lf 1021,9 hPa 0,0 l/m 0 min 0 min 0 W/m 20,9 km/h (4 Bft) 97,87 %
17.01.2016 02:46 0,3 C 0,6 C -0,6 C 95 % 15 lf 1022,0 hPa 0,0 l/m 0 min 0 min 0 W/m 18,8 km/h (3 Bft) 97,87 %
17.01.2016 02:48 0,3 C 0,6 C -0,6 C 95 % 15 lf 1022,0 hPa 0,0 l/m 0 min 0 min 0 W/m 14,6 km/h (3 Bft) 97,83 %
17.01.2016 02:50 0,3 C 0,6 C -0,6 C 95 % 15 lf 1022,0 hPa 0,0 l/m 0 min 0 min 0 W/m 14,6 km/h (3 Bft) 96,61 %
17.01.2016 02:52 0,3 C 0,6 C -0,6 C 95 % 15 lf 1022,0 hPa 0,0 l/m 0 min 2 min 0 W/m 23,0 km/h (4 Bft) 97,14 %
17.01.2016 02:54 0,3 C 0,6 C -0,6 C 95 % 15 lf 1022,0 hPa 0,0 l/m 0 min 2 min 0 W/m 16,7 km/h (3 Bft) 91,49 %
17.01.2016 02:56 0,3 C 0,6 C -0,6 C 95 % 15 lf 1022,0 hPa 0,0 l/m 0 min 0 min 0 W/m 20,9 km/h (4 Bft) 95,74 %
17.01.2016 02:58 0,3 C 0,6 C -0,6 C 95 % 15 lf 1022,0 hPa 0,0 l/m 0 min 0 min 0 W/m 20,9 km/h (4 Bft) 91,49 %
17.01.2016 03:00 0,3 C 0,6 C -0,6 C 95 % 15 lf 1022,0 hPa 0,0 l/m 0 min 0 min 0 W/m 16,7 km/h (3 Bft) 95,65 %
17.01.2016 03:02 0,3 C 0,6 C -0,6 C 95 % 15 lf 1021,9 hPa 0,0 l/m 0 min 2 min 0 W/m 16,7 km/h (3 Bft) 97,87 %
17.01.2016 03:04 0,3 C 0,6 C -0,6 C 95 % 15 lf 1021,9 hPa 0,0 l/m 0 min 0 min 0 W/m 20,9 km/h (4 Bft) 91,49 %
17.01.2016 03:06 0,3 C 0,6 C -0,6 C 95 % 15 lf 1021,9 hPa 0,0 l/m 0 min 0 min 0 W/m 14,6 km/h (3 Bft) 91,49 %
17.01.2016 03:08 0,3 C 0,6 C -0,6 C 95 % 15 lf 1021,9 hPa 0,0 l/m 0 min 0 min 0 W/m 14,6 km/h (3 Bft) 97,87 %
17.01.2016 03:10 0,3 C 0,6 C -0,6 C 95 % 13 lf 1021,9 hPa 0,0 l/m 0 min 0 min 0 W/m 23,0 km/h (4 Bft) 95,74 %
17.01.2016 03:12 0,3 C 0,0 C -1,1 C 95 % 9 lf 1021,9 hPa 0,0 l/m 0 min 0 min 0 W/m 10,5 km/h (2 Bft) 95,65 %
17.01.2016 03:14 0,3 C 0,0 C -1,1 C 95 % 5 lf 1021,8 hPa 0,0 l/m 0 min 0 min 0 W/m 23,0 km/h (4 Bft) 93,62 %
17.01.2016 03:16 0,3 C 0,0 C -1,1 C 95 % 3 lf 1021,9 hPa 0,0 l/m 0 min 0 min 0 W/m 16,7 km/h (3 Bft) 95,74 %
17.01.2016 03:18 0,3 C 0,0 C -1,1 C 95 % 2 lf 1021,9 hPa 0,0 l/m 0 min 0 min 0 W/m 16,7 km/h (3 Bft) 93,62 %
17.01.2016 03:20 0,2 C 0,0 C -1,1 C 95 % 2 lf 1021,9 hPa 0,0 l/m 0 min 0 min 0 W/m 10,5 km/h (2 Bft) 91,38 %
17.01.2016 03:22 0,2 C 0,0 C -1,1 C 95 % 2 lf 1022,0 hPa 0,0 l/m 0 min 2 min 0 W/m 25,1 km/h (4 Bft) 94,29 %
17.01.2016 03:24 0,2 C 0,0 C -1,1 C 95 % 2 lf 1021,9 hPa 0,0 l/m 0 min 2 min 0 W/m 18,8 km/h (3 Bft) 95,74 %
17.01.2016 03:26 0,2 C 0,0 C -1,1 C 95 % 3 lf 1022,0 hPa 0,0 l/m 0 min 0 min 0 W/m 25,1 km/h (4 Bft) 93,62 %
17.01.2016 03:28 0,2 C 0,0 C -1,1 C 95 % 3 lf 1022,0 hPa 0,0 l/m 0 min 0 min 0 W/m 18,8 km/h (3 Bft) 95,74 %
17.01.2016 03:30 0,2 C 0,0 C -1,1 C 95 % 3 lf 1022,0 hPa 0,0 l/m 0 min 0 min 0 W/m 16,7 km/h (3 Bft) 91,49 %
17.01.2016 03:32 0,2 C 0,0 C -1,1 C 95 % 5 lf 1022,0 hPa 0,0 l/m 0 min 0 min 0 W/m 25,1 km/h (4 Bft) 93,62 %
17.01.2016 03:34 0,2 C 0,0 C -0,6 C 95 % 11 lf 1022,1 hPa 0,0 l/m 0 min 0 min 0 W/m 18,8 km/h (3 Bft) 93,48 %
17.01.2016 03:36 0,2 C 0,0 C -0,6 C 95 % 13 lf 1022,1 hPa 0,0 l/m 0 min 0 min 0 W/m 12,6 km/h (3 Bft) 91,49 %
17.01.2016 03:38 0,1 C 0,0 C -0,6 C 95 % 12 lf 1022,1 hPa 0,0 l/m 0 min 0 min 0 W/m 14,6 km/h (3 Bft) 95,74 %
17.01.2016 03:40 0,2 C 0,0 C -0,6 C 95 % 6 lf 1022,0 hPa 0,0 l/m 0 min 0 min 0 W/m 18,8 km/h (3 Bft) 93,62 %
17.01.2016 03:42 0,2 C 0,0 C -1,1 C 95 % 3 lf 1022,0 hPa 0,0 l/m 0 min 0 min 0 W/m 18,8 km/h (3 Bft) 95,74 %
17.01.2016 03:44 0,2 C 0,0 C -1,1 C 95 % 2 lf 1022,0 hPa 0,0 l/m 0 min 0 min 0 W/m 16,7 km/h (3 Bft) 91,49 %
17.01.2016 03:46 0,1 C 0,0 C -1,1 C 95 % 2 lf 1022,0 hPa 0,0 l/m 0 min 0 min 0 W/m 16,7 km/h (3 Bft) 95,65 %
17.01.2016 03:48 0,1 C 0,0 C -1,1 C 95 % 2 lf 1022,0 hPa 0,0 l/m 0 min 0 min 0 W/m 16,7 km/h (3 Bft) 97,87 %
17.01.2016 03:50 0,1 C -0,6 C -1,1 C 95 % 1 lf 1022,0 hPa 0,0 l/m 0 min 0 min 0 W/m 23,0 km/h (4 Bft) 95,74 %
17.01.2016 03:52 0,1 C -0,6 C -1,1 C 95 % 1 lf 1021,9 hPa 0,0 l/m 0 min 0 min 0 W/m 25,1 km/h (4 Bft) 91,49 %
17.01.2016 03:54 0,1 C -0,6 C -1,1 C 95 % 1 lf 1021,9 hPa 0,0 l/m 0 min 0 min 0 W/m 27,2 km/h (4 Bft) 95,74 %
17.01.2016 03:56 0,0 C -0,6 C -1,1 C 95 % 1 lf 1021,9 hPa 0,0 l/m 0 min 0 min 0 W/m 20,9 km/h (4 Bft) 97,87 %
17.01.2016 03:58 0,0 C -0,6 C -1,7 C 95 % 1 lf 1021,9 hPa 0,0 l/m 0 min 0 min 0 W/m 10,5 km/h (2 Bft) 100,00 %
17.01.2016 04:00 -0,1 C -0,6 C -1,7 C 95 % 1 lf 1022,0 hPa 0,0 l/m 0 min 0 min 0 W/m 12,6 km/h (3 Bft) 93,62 %
17.01.2016 04:05 -0,1 C -0,6 C -1,7 C 95 % 1 lf 1022,1 hPa 0,0 l/m 0 min 0 min 0 W/m 16,7 km/h (3 Bft) 98,68 %
17.01.2016 04:06 -0,1 C -0,6 C -1,7 C 95 % 1 lf 1022,1 hPa 0,0 l/m 0 min 0 min 0 W/m 14,6 km/h (3 Bft) 100,00 %
17.01.2016 04:08 -0,1 C -0,6 C -1,7 C 95 % 1 lf 1022,1 hPa 0,0 l/m 0 min 0 min 0 W/m 16,7 km/h (3 Bft) 97,87 %
17.01.2016 04:10 -0,2 C -0,6 C -1,7 C 95 % 1 lf 1022,1 hPa 0,0 l/m 0 min 0 min 0 W/m 8,4 km/h (2 Bft) 97,83 %
17.01.2016 04:12 -0,2 C -0,6 C -1,7 C 95 % 1 lf 1022,0 hPa 0,0 l/m 0 min 0 min 0 W/m 14,6 km/h (3 Bft) 97,87 %
17.01.2016 04:14 -0,2 C -0,6 C -1,7 C 95 % 1 lf 1022,1 hPa 0,0 l/m 0 min 0 min 0 W/m 14,6 km/h (3 Bft) 97,87 %
17.01.2016 04:16 -0,2 C -1,1 C -1,7 C 95 % 1 lf 1022,1 hPa 0,0 l/m 0 min 0 min 0 W/m 12,6 km/h (3 Bft) 97,87 %
17.01.2016 04:18 -0,3 C -1,1 C -1,7 C 95 % 1 lf 1022,1 hPa 0,0 l/m 0 min 0 min 0 W/m 12,6 km/h (3 Bft) 100,00 %
17.01.2016 04:20 -0,3 C -1,1 C -1,7 C 95 % 1 lf 1022,1 hPa 0,0 l/m 0 min 0 min 0 W/m 12,6 km/h (3 Bft) 100,00 %
17.01.2016 04:22 -0,3 C -1,1 C -1,7 C 95 % 1 lf 1022,2 hPa 0,0 l/m 0 min 0 min 0 W/m 20,9 km/h (4 Bft) 100,00 %
17.01.2016 04:24 -0,3 C -1,1 C -1,7 C 95 % 1 lf 1022,2 hPa 0,0 l/m 0 min 0 min 0 W/m 12,6 km/h (3 Bft) 100,00 %
17.01.2016 04:26 -0,4 C -1,1 C -1,7 C 95 % 1 lf 1022,1 hPa 0,0 l/m 0 min 0 min 0 W/m 12,6 km/h (3 Bft) 100,00 %
17.01.2016 04:28 -0,4 C -1,1 C -2,2 C 95 % 1 lf 1022,1 hPa 0,0 l/m 0 min 0 min 0 W/m 10,5 km/h (2 Bft) 95,74 %
17.01.2016 04:30 -0,4 C -1,1 C -2,2 C 95 % 1 lf 1022,0 hPa 0,0 l/m 0 min 0 min 0 W/m 12,6 km/h (3 Bft) 97,87 %
17.01.2016 04:32 -0,4 C -1,1 C -1,7 C 95 % 1 lf 1022,1 hPa 0,0 l/m 0 min 0 min 0 W/m 14,6 km/h (3 Bft) 97,83 %
17.01.2016 04:34 -0,5 C -1,1 C -2,2 C 95 % 1 lf 1022,1 hPa 0,0 l/m 0 min 0 min 0 W/m 18,8 km/h (3 Bft) 100,00 %
17.01.2016 04:36 -0,5 C -1,1 C -1,7 C 95 % 1 lf 1022,1 hPa 0,0 l/m 0 min 0 min 0 W/m 18,8 km/h (3 Bft) 97,87 %
17.01.2016 04:38 -0,5 C -1,1 C -1,7 C 95 % 1 lf 1022,1 hPa 0,0 l/m 0 min 0 min 0 W/m 16,7 km/h (3 Bft) 97,87 %
17.01.2016 04:40 -0,6 C -1,1 C -2,2 C 95 % 1 lf 1022,0 hPa 0,0 l/m 0 min 0 min 0 W/m 12,6 km/h (3 Bft) 97,87 %
17.01.2016 04:42 -0,6 C -1,1 C -1,7 C 95 % 1 lf 1022,0 hPa 0,0 l/m 0 min 0 min 0 W/m 16,7 km/h (3 Bft) 100,00 %
17.01.2016 04:44 -0,6 C -1,1 C -2,2 C 95 % 1 lf 1022,0 hPa 0,0 l/m 0 min 0 min 0 W/m 14,6 km/h (3 Bft) 95,65 %
17.01.2016 04:46 -0,6 C -1,1 C -1,7 C 95 % 1 lf 1022,1 hPa 0,0 l/m 0 min 0 min 0 W/m 14,6 km/h (3 Bft) 100,00 %
17.01.2016 04:48 -0,6 C -1,1 C -1,7 C 95 % 1 lf 1022,1 hPa 0,0 l/m 0 min 0 min 0 W/m 16,7 km/h (3 Bft) 100,00 %
17.01.2016 04:50 -0,6 C -1,1 C -2,2 C 95 % 1 lf 1022,1 hPa 0,0 l/m 0 min 0 min 0 W/m 10,5 km/h (2 Bft) 100,00 %
17.01.2016 04:52 -0,6 C -1,1 C -2,2 C 95 % 1 lf 1022,1 hPa 0,0 l/m 0 min 0 min 0 W/m 12,6 km/h (3 Bft) 100,00 %
17.01.2016 04:54 -0,7 C -1,1 C -2,2 C 95 % 1 lf 1021,9 hPa 0,0 l/m 0 min 0 min 0 W/m 20,9 km/h (4 Bft) 95,74 %
17.01.2016 04:56 -0,7 C -1,1 C -2,2 C 95 % 1 lf 1021,9 hPa 0,0 l/m 0 min 0 min 0 W/m 16,7 km/h (3 Bft) 97,83 %
17.01.2016 04:58 -0,7 C -1,1 C -2,2 C 95 % 1 lf 1022,0 hPa 0,0 l/m 0 min 0 min 0 W/m 12,6 km/h (3 Bft) 100,00 %
17.01.2016 05:00 -0,7 C -1,1 C -2,2 C 95 % 1 lf 1021,9 hPa 0,0 l/m 0 min 0 min 0 W/m 10,5 km/h (2 Bft) 100,00 %
17.01.2016 05:02 -0,7 C -1,1 C -2,2 C 95 % 1 lf 1022,0 hPa 0,0 l/m 0 min 0 min 0 W/m 10,5 km/h (2 Bft) 100,00 %
17.01.2016 05:04 -0,7 C -1,1 C -2,2 C 95 % 1 lf 1022,1 hPa 0,0 l/m 0 min 0 min 0 W/m 14,6 km/h (3 Bft) 100,00 %
17.01.2016 05:06 -0,7 C -1,1 C -2,2 C 95 % 1 lf 1022,1 hPa 0,0 l/m 0 min 0 min 0 W/m 16,7 km/h (3 Bft) 100,00 %
17.01.2016 05:08 -0,8 C -1,1 C -2,2 C 95 % 1 lf 1022,0 hPa 0,0 l/m 0 min 0 min 0 W/m 20,9 km/h (4 Bft) 100,00 %
17.01.2016 05:10 -0,8 C -1,1 C -1,7 C 95 % 1 lf 1022,0 hPa 0,0 l/m 0 min 0 min 0 W/m 16,7 km/h (3 Bft) 100,00 %
17.01.2016 05:12 -0,8 C -1,1 C -2,2 C 95 % 1 lf 1022,1 hPa 0,0 l/m 0 min 0 min 0 W/m 20,9 km/h (4 Bft) 97,87 %
17.01.2016 05:14 -0,8 C -1,1 C -2,2 C 95 % 1 lf 1022,1 hPa 0,0 l/m 0 min 0 min 0 W/m 23,0 km/h (4 Bft) 100,00 %
17.01.2016 05:16 -0,8 C -1,1 C -2,2 C 95 % 1 lf 1022,1 hPa 0,0 l/m 0 min 0 min 0 W/m 14,6 km/h (3 Bft) 97,87 %
17.01.2016 05:18 -0,8 C -1,1 C -2,2 C 95 % 1 lf 1022,1 hPa 0,0 l/m 0 min 0 min 0 W/m 20,9 km/h (4 Bft) 100,00 %
17.01.2016 05:20 -0,8 C -1,1 C -2,2 C 95 % 1 lf 1022,2 hPa 0,0 l/m 0 min 0 min 0 W/m 16,7 km/h (3 Bft) 96,55 %
17.01.2016 05:22 -0,8 C -1,1 C -2,2 C 95 % 1 lf 1022,2 hPa 0,0 l/m 0 min 0 min 0 W/m 14,6 km/h (3 Bft) 97,14 %
17.01.2016 05:24 -0,8 C -1,1 C -2,2 C 95 % 1 lf 1022,2 hPa 0,0 l/m 0 min 0 min 0 W/m 16,7 km/h (3 Bft) 95,74 %
17.01.2016 05:26 -0,9 C -1,1 C -2,2 C 95 % 1 lf 1022,2 hPa 0,0 l/m 0 min 0 min 0 W/m 18,8 km/h (3 Bft) 100,00 %
17.01.2016 05:28 -0,9 C -1,1 C -2,2 C 95 % 1 lf 1022,2 hPa 0,0 l/m 0 min 0 min 0 W/m 25,1 km/h (4 Bft) 100,00 %
17.01.2016 05:30 -0,9 C -1,1 C -2,2 C 95 % 1 lf 1022,2 hPa 0,0 l/m 0 min 0 min 0 W/m 20,9 km/h (4 Bft) 100,00 %
17.01.2016 05:32 -0,9 C -1,1 C -2,2 C 95 % 1 lf 1022,2 hPa 0,0 l/m 0 min 0 min 0 W/m 14,6 km/h (3 Bft) 97,83 %
17.01.2016 05:34 -0,9 C -1,1 C -2,2 C 95 % 1 lf 1022,1 hPa 0,0 l/m 0 min 0 min 0 W/m 20,9 km/h (4 Bft) 95,74 %
17.01.2016 05:36 -1,0 C -1,1 C -2,2 C 95 % 1 lf 1022,1 hPa 0,0 l/m 0 min 0 min 0 W/m 14,6 km/h (3 Bft) 95,74 %
17.01.2016 05:38 -1,0 C -1,1 C -2,2 C 95 % 1 lf 1022,4 hPa 0,0 l/m 0 min 0 min 0 W/m 12,6 km/h (3 Bft) 97,87 %
17.01.2016 05:40 -1,0 C -1,1 C -2,2 C 95 % 1 lf 1022,2 hPa 0,0 l/m 0 min 0 min 0 W/m 18,8 km/h (3 Bft) 97,87 %
17.01.2016 05:42 -1,0 C -1,1 C -2,2 C 95 % 1 lf 1022,2 hPa 0,0 l/m 0 min 0 min 0 W/m 23,0 km/h (4 Bft) 95,65 %
17.01.2016 05:44 -1,1 C -1,1 C -2,2 C 95 % 1 lf 1022,2 hPa 0,0 l/m 0 min 0 min 0 W/m 16,7 km/h (3 Bft) 89,36 %
17.01.2016 05:46 -1,1 C -1,1 C -2,2 C 95 % 1 lf 1022,2 hPa 0,0 l/m 0 min 0 min 0 W/m 16,7 km/h (3 Bft) 95,74 %
17.01.2016 05:48 -1,1 C -1,1 C -2,2 C 95 % 1 lf 1022,2 hPa 0,0 l/m 0 min 0 min 0 W/m 18,8 km/h (3 Bft) 95,74 %
17.01.2016 05:50 -1,1 C -1,1 C -2,2 C 95 % 1 lf 1022,3 hPa 0,0 l/m 0 min 0 min 0 W/m 18,8 km/h (3 Bft) 96,55 %
17.01.2016 05:52 -1,1 C -1,1 C -2,2 C 95 % 1 lf 1022,2 hPa 0,0 l/m 0 min 0 min 0 W/m 16,7 km/h (3 Bft) 94,44 %
17.01.2016 05:54 -1,1 C -1,1 C -2,2 C 95 % 1 lf 1022,4 hPa 0,0 l/m 0 min 0 min 0 W/m 14,6 km/h (3 Bft) 91,30 %
17.01.2016 05:56 -1,1 C -1,1 C -2,2 C 95 % 1 lf 1022,4 hPa 0,0 l/m 0 min 0 min 0 W/m 18,8 km/h (3 Bft) 95,74 %
17.01.2016 05:58 -1,1 C -1,1 C -2,2 C 95 % 1 lf 1022,3 hPa 0,0 l/m 0 min 0 min 0 W/m 16,7 km/h (3 Bft) 91,49 %
17.01.2016 06:00 -1,1 C -1,1 C -2,2 C 94 % 1 lf 1022,2 hPa 0,0 l/m 0 min 0 min 0 W/m 14,6 km/h (3 Bft) 93,62 %
17.01.2016 06:02 -1,1 C -1,1 C -1,7 C 94 % 1 lf 1022,2 hPa 0,0 l/m 0 min 0 min 0 W/m 16,7 km/h (3 Bft) 93,62 %
17.01.2016 06:04 -1,1 C -1,1 C -1,7 C 94 % 1 lf 1022,2 hPa 0,0 l/m 0 min 0 min 0 W/m 16,7 km/h (3 Bft) 95,74 %
17.01.2016 06:06 -1,1 C -1,1 C -1,7 C 94 % 1 lf 1022,2 hPa 0,0 l/m 0 min 0 min 0 W/m 14,6 km/h (3 Bft) 95,65 %
17.01.2016 06:08 -1,1 C -1,1 C -1,7 C 94 % 1 lf 1022,3 hPa 0,0 l/m 0 min 0 min 0 W/m 16,7 km/h (3 Bft) 95,74 %
17.01.2016 06:10 -1,1 C -1,1 C -1,7 C 94 % 1 lf 1022,2 hPa 0,0 l/m 0 min 0 min 0 W/m 20,9 km/h (4 Bft) 95,74 %
17.01.2016 06:12 -1,1 C -1,1 C -2,2 C 94 % 0 lf 1022,2 hPa 0,0 l/m 0 min 0 min 0 W/m 18,8 km/h (3 Bft) 95,74 %
17.01.2016 06:14 -1,1 C -1,1 C -2,2 C 94 % 0 lf 1022,2 hPa 0,0 l/m 0 min 0 min 0 W/m 12,6 km/h (3 Bft) 95,74 %
17.01.2016 06:16 -1,1 C -1,1 C -2,2 C 94 % 0 lf 1022,3 hPa 0,0 l/m 0 min 0 min 0 W/m 14,6 km/h (3 Bft) 93,62 %
17.01.2016 06:18 -1,1 C -1,1 C -2,2 C 94 % 0 lf 1022,4 hPa 0,0 l/m 0 min 0 min 0 W/m 14,6 km/h (3 Bft) 95,65 %
17.01.2016 06:20 -1,1 C -1,1 C -2,2 C 94 % 0 lf 1022,4 hPa 0,0 l/m 0 min 0 min 0 W/m 16,7 km/h (3 Bft) 91,49 %
17.01.2016 06:22 -1,1 C -1,1 C -2,2 C 94 % 1 lf 1022,4 hPa 0,0 l/m 0 min 0 min 0 W/m 18,8 km/h (3 Bft) 93,62 %
17.01.2016 06:24 -1,1 C -1,1 C -2,2 C 94 % 1 lf 1022,4 hPa 0,0 l/m 0 min 0 min 0 W/m 23,0 km/h (4 Bft) 95,74 %
17.01.2016 06:26 -1,1 C -1,1 C -2,2 C 94 % 0 lf 1022,4 hPa 0,0 l/m 0 min 0 min 0 W/m 16,7 km/h (3 Bft) 95,74 %
17.01.2016 06:28 -1,1 C -1,1 C -2,2 C 94 % 1 lf 1022,5 hPa 0,0 l/m 0 min 0 min 0 W/m 20,9 km/h (4 Bft) 93,62 %
17.01.2016 06:30 -1,1 C -1,1 C -2,2 C 94 % 1 lf 1022,5 hPa 0,0 l/m 0 min 0 min 0 W/m 18,8 km/h (3 Bft) 93,48 %
17.01.2016 06:32 -1,1 C -1,1 C -1,7 C 94 % 1 lf 1022,5 hPa 0,0 l/m 0 min 0 min 0 W/m 20,9 km/h (4 Bft) 91,84 %
17.01.2016 06:34 -1,1 C -1,1 C -1,7 C 94 % 1 lf 1022,6 hPa 0,0 l/m 0 min 0 min 0 W/m 14,6 km/h (3 Bft) 93,62 %
17.01.2016 06:36 -1,1 C -0,6 C -1,7 C 94 % 1 lf 1022,7 hPa 0,0 l/m 0 min 0 min 0 W/m 14,6 km/h (3 Bft) 95,74 %
17.01.2016 06:38 -1,1 C -0,6 C -1,7 C 94 % 1 lf 1022,6 hPa 0,0 l/m 0 min 0 min 0 W/m 20,9 km/h (4 Bft) 97,87 %
17.01.2016 06:40 -1,0 C -0,6 C -1,7 C 94 % 1 lf 1022,7 hPa 0,0 l/m 0 min 0 min 0 W/m 25,1 km/h (4 Bft) 95,65 %
17.01.2016 06:42 -1,0 C -0,6 C -1,7 C 95 % 1 lf 1022,6 hPa 0,0 l/m 0 min 0 min 0 W/m 16,7 km/h (3 Bft) 95,74 %
17.01.2016 06:44 -1,0 C -0,6 C -1,7 C 95 % 1 lf 1022,7 hPa 0,0 l/m 0 min 0 min 0 W/m 23,0 km/h (4 Bft) 91,49 %
17.01.2016 06:46 -0,9 C -0,6 C -1,7 C 95 % 1 lf 1022,6 hPa 0,0 l/m 0 min 0 min 0 W/m 23,0 km/h (4 Bft) 93,62 %
17.01.2016 06:48 -0,9 C -0,6 C -1,7 C 94 % 1 lf 1022,8 hPa 0,0 l/m 0 min 0 min 0 W/m 39,7 km/h (6 Bft) 95,74 %
17.01.2016 06:50 -0,9 C -0,6 C -1,7 C 94 % 1 lf 1022,8 hPa 0,0 l/m 0 min 0 min 0 W/m 23,0 km/h (4 Bft) 95,65 %
17.01.2016 06:52 -0,9 C -0,6 C -1,7 C 94 % 1 lf 1022,8 hPa 0,0 l/m 0 min 0 min 0 W/m 16,7 km/h (3 Bft) 93,62 %
17.01.2016 06:54 -0,9 C -0,6 C -1,7 C 94 % 0 lf 1022,8 hPa 0,0 l/m 0 min 0 min 0 W/m 18,8 km/h (3 Bft) 95,74 %
17.01.2016 06:56 -0,9 C -0,6 C -1,7 C 94 % 0 lf 1022,8 hPa 0,0 l/m 0 min 0 min 0 W/m 18,8 km/h (3 Bft) 97,87 %
17.01.2016 06:58 -0,9 C -1,1 C -1,7 C 94 % 0 lf 1022,7 hPa 0,0 l/m 0 min 0 min 0 W/m 18,8 km/h (3 Bft) 97,87 %
17.01.2016 07:00 -0,9 C -1,1 C -1,7 C 94 % 0 lf 1022,8 hPa 0,0 l/m 0 min 0 min 0 W/m 18,8 km/h (3 Bft) 95,74 %
17.01.2016 07:02 -0,9 C -1,1 C -2,2 C 94 % 0 lf 1022,8 hPa 0,0 l/m 0 min 0 min 0 W/m 18,8 km/h (3 Bft) 93,48 %
17.01.2016 07:04 -0,9 C -1,1 C -2,2 C 94 % 0 lf 1022,9 hPa 0,0 l/m 0 min 0 min 0 W/m 18,8 km/h (3 Bft) 95,74 %
17.01.2016 07:06 -0,9 C -1,1 C -2,2 C 94 % 0 lf 1022,9 hPa 0,0 l/m 0 min 0 min 0 W/m 16,7 km/h (3 Bft) 95,74 %
17.01.2016 07:08 -0,9 C -1,1 C -2,2 C 94 % 0 lf 1022,9 hPa 0,0 l/m 0 min 0 min 0 W/m 20,9 km/h (4 Bft) 93,62 %
17.01.2016 07:10 -0,9 C -1,1 C -2,2 C 94 % 0 lf 1022,9 hPa 0,0 l/m 0 min 0 min 0 W/m 23,0 km/h (4 Bft) 95,74 %
17.01.2016 07:12 -0,9 C -1,1 C -2,2 C 94 % 0 lf 1023,0 hPa 0,0 l/m 0 min 0 min 0 W/m 20,9 km/h (4 Bft) 95,74 %
17.01.2016 07:14 -0,9 C -1,1 C -2,2 C 94 % 0 lf 1023,0 hPa 0,0 l/m 0 min 0 min 0 W/m 14,6 km/h (3 Bft) 97,83 %
17.01.2016 07:16 -0,9 C -1,1 C -2,2 C 94 % 0 lf 1023,1 hPa 0,0 l/m 0 min 0 min 0 W/m 18,8 km/h (3 Bft) 95,74 %
17.01.2016 07:18 -0,9 C -1,1 C -2,2 C 94 % 0 lf 1023,1 hPa 0,0 l/m 0 min 0 min 0 W/m 20,9 km/h (4 Bft) 93,62 %
17.01.2016 07:20 -0,9 C -1,1 C -2,2 C 94 % 0 lf 1023,1 hPa 0,0 l/m 0 min 0 min 0 W/m 18,8 km/h (3 Bft) 91,49 %
17.01.2016 07:22 -1,0 C -1,1 C -2,2 C 94 % 0 lf 1023,1 hPa 0,0 l/m 0 min 0 min 0 W/m 20,9 km/h (4 Bft) 95,74 %
17.01.2016 07:24 -1,0 C -1,1 C -2,2 C 94 % 0 lf 1023,2 hPa 0,0 l/m 0 min 0 min 0 W/m 20,9 km/h (4 Bft) 95,74 %
17.01.2016 07:26 -1,0 C -1,1 C -2,2 C 94 % 0 lf 1023,2 hPa 0,0 l/m 0 min 0 min 0 W/m 14,6 km/h (3 Bft) 95,65 %
17.01.2016 07:28 -1,0 C -1,1 C -2,2 C 94 % 0 lf 1023,2 hPa 0,0 l/m 0 min 0 min 0 W/m 16,7 km/h (3 Bft) 95,74 %
17.01.2016 07:30 -1,0 C -1,7 C -2,2 C 94 % 0 lf 1023,3 hPa 0,0 l/m 0 min 0 min 0 W/m 20,9 km/h (4 Bft) 95,74 %
17.01.2016 07:32 -1,0 C -1,7 C -2,2 C 93 % 0 lf 1023,3 hPa 0,0 l/m 0 min 0 min 0 W/m 10,5 km/h (2 Bft) 93,62 %
17.01.2016 07:34 -1,1 C -1,7 C -2,2 C 93 % 0 lf 1023,3 hPa 0,0 l/m 0 min 0 min 0 W/m 20,9 km/h (4 Bft) 93,62 %
17.01.2016 07:36 -1,1 C -1,7 C -2,2 C 93 % 0 lf 1023,4 hPa 0,0 l/m 0 min 0 min 0 W/m 14,6 km/h (3 Bft) 97,87 %
17.01.2016 07:38 -1,1 C -1,7 C -2,2 C 93 % 0 lf 1023,4 hPa 0,0 l/m 0 min 0 min 0 W/m 16,7 km/h (3 Bft) 95,65 %
17.01.2016 07:40 -1,1 C -1,7 C -2,2 C 93 % 0 lf 1023,3 hPa 0,0 l/m 0 min 0 min 0 W/m 16,7 km/h (3 Bft) 95,74 %
17.01.2016 07:42 -1,1 C -1,7 C -2,2 C 93 % 0 lf 1023,4 hPa 0,0 l/m 0 min 0 min 0 W/m 16,7 km/h (3 Bft) 95,74 %
17.01.2016 07:44 -1,1 C -1,7 C -2,2 C 93 % 0 lf 1023,5 hPa 0,0 l/m 0 min 0 min 0 W/m 18,8 km/h (3 Bft) 97,87 %
17.01.2016 07:46 -1,1 C -1,7 C -2,2 C 93 % 0 lf 1023,4 hPa 0,0 l/m 0 min 0 min 0 W/m 14,6 km/h (3 Bft) 95,74 %
17.01.2016 07:48 -1,2 C -1,7 C -2,2 C 93 % 0 lf 1023,5 hPa 0,0 l/m 0 min 0 min 0 W/m 16,7 km/h (3 Bft) 95,74 %
17.01.2016 07:50 -1,2 C -1,7 C -2,2 C 93 % 0 lf 1023,5 hPa 0,0 l/m 0 min 0 min 0 W/m 12,6 km/h (3 Bft) 97,83 %
17.01.2016 07:52 -1,2 C -1,7 C -2,2 C 93 % 0 lf 1023,4 hPa 0,0 l/m 0 min 0 min 0 W/m 29,3 km/h (5 Bft) 97,87 %
17.01.2016 07:54 -1,2 C -1,7 C -2,2 C 93 % 0 lf 1023,4 hPa 0,0 l/m 0 min 0 min 0 W/m 18,8 km/h (3 Bft) 100,00 %
17.01.2016 07:56 -1,2 C -1,7 C -2,2 C 93 % 0 lf 1023,5 hPa 0,0 l/m 0 min 0 min 0 W/m 20,9 km/h (4 Bft) 100,00 %
17.01.2016 07:58 -1,2 C -1,1 C -2,2 C 93 % 0 lf 1023,5 hPa 0,0 l/m 0 min 0 min 0 W/m 18,8 km/h (3 Bft) 100,00 %
17.01.2016 08:00 -1,2 C -1,1 C -2,2 C 93 % 0 lf 1023,5 hPa 0,0 l/m 0 min 0 min 0 W/m 16,7 km/h (3 Bft) 93,48 %
17.01.2016 08:02 -1,2 C -1,1 C -2,2 C 93 % 0 lf 1023,6 hPa 0,0 l/m 0 min 0 min 0 W/m 14,6 km/h (3 Bft) 97,87 %
17.01.2016 08:04 -1,2 C -1,1 C -2,2 C 93 % 0 lf 1023,7 hPa 0,0 l/m 0 min 0 min 0 W/m 16,7 km/h (3 Bft) 100,00 %
17.01.2016 08:06 -1,2 C -1,1 C -2,2 C 93 % 0 lf 1023,7 hPa 0,0 l/m 0 min 0 min 0 W/m 16,7 km/h (3 Bft) 97,87 %
17.01.2016 08:08 -1,2 C -1,1 C -2,2 C 93 % 0 lf 1023,7 hPa 0,0 l/m 0 min 0 min 0 W/m 14,6 km/h (3 Bft) 100,00 %
17.01.2016 08:10 -1,2 C -1,1 C -2,2 C 93 % 0 lf 1023,6 hPa 0,0 l/m 0 min 0 min 0 W/m 18,8 km/h (3 Bft) 93,62 %
17.01.2016 08:12 -1,1 C -1,1 C -2,2 C 93 % 0 lf 1023,7 hPa 0,0 l/m 0 min 0 min 0 W/m 14,6 km/h (3 Bft) 97,83 %
17.01.2016 08:14 -1,1 C -1,1 C -2,2 C 93 % 0 lf 1023,7 hPa 0,0 l/m 0 min 0 min 0 W/m 12,6 km/h (3 Bft) 97,87 %
17.01.2016 08:16 -1,1 C -1,1 C -2,2 C 93 % 0 lf 1023,8 hPa 0,0 l/m 0 min 0 min 0 W/m 10,5 km/h (2 Bft) 97,87 %
17.01.2016 08:18 -1,1 C -1,1 C -2,2 C 93 % 0 lf 1023,8 hPa 0,0 l/m 0 min 0 min 5 W/m 6,3 km/h (2 Bft) 95,74 %
17.01.2016 08:20 -1,1 C -1,1 C -2,2 C 93 % 0 lf 1023,8 hPa 0,0 l/m 0 min 0 min 5 W/m 16,7 km/h (3 Bft) 97,87 %
17.01.2016 08:22 -1,1 C -1,1 C -2,2 C 93 % 0 lf 1023,8 hPa 0,0 l/m 0 min 0 min 5 W/m 16,7 km/h (3 Bft) 97,87 %
17.01.2016 08:24 -1,1 C -1,1 C -2,2 C 93 % 0 lf 1023,8 hPa 0,0 l/m 0 min 0 min 5 W/m 10,5 km/h (2 Bft) 95,65 %
17.01.2016 08:26 -1,1 C -1,1 C -2,2 C 93 % 0 lf 1023,8 hPa 0,0 l/m 0 min 0 min 7 W/m 10,5 km/h (2 Bft) 93,62 %
17.01.2016 08:28 -1,1 C -1,7 C -2,2 C 93 % 0 lf 1023,8 hPa 0,0 l/m 0 min 0 min 7 W/m 12,6 km/h (3 Bft) 97,87 %
17.01.2016 08:30 -1,1 C -1,7 C -2,2 C 93 % 0 lf 1023,8 hPa 0,0 l/m 0 min 0 min 9 W/m 12,6 km/h (3 Bft) 91,49 %
17.01.2016 08:32 -1,1 C -1,7 C -2,2 C 93 % 0 lf 1023,9 hPa 0,0 l/m 0 min 0 min 9 W/m 6,3 km/h (2 Bft) 95,74 %
17.01.2016 08:34 -1,1 C -1,7 C -2,2 C 93 % 0 lf 1023,9 hPa 0,0 l/m 0 min 0 min 9 W/m 10,5 km/h (2 Bft) 97,87 %
17.01.2016 08:36 -1,2 C -1,7 C -2,2 C 93 % 0 lf 1024,0 hPa 0,0 l/m 0 min 0 min 10 W/m 14,6 km/h (3 Bft) 95,65 %
17.01.2016 08:38 -1,2 C -1,7 C -2,8 C 93 % 0 lf 1024,0 hPa 0,0 l/m 0 min 0 min 11 W/m 12,6 km/h (3 Bft) 97,87 %
17.01.2016 08:40 -1,2 C -1,7 C -2,8 C 93 % 0 lf 1024,0 hPa 0,0 l/m 0 min 0 min 12 W/m 8,4 km/h (2 Bft) 93,62 %
17.01.2016 08:42 -1,2 C -1,7 C -2,8 C 93 % 0 lf 1024,0 hPa 0,0 l/m 0 min 0 min 12 W/m 10,5 km/h (2 Bft) 97,87 %
17.01.2016 08:44 -1,2 C -2,2 C -2,8 C 93 % 0 lf 1023,9 hPa 0,0 l/m 0 min 0 min 14 W/m 6,3 km/h (2 Bft) 97,87 %
17.01.2016 08:46 -1,2 C -2,2 C -2,8 C 93 % 0 lf 1024,1 hPa 0,0 l/m 0 min 0 min 14 W/m 10,5 km/h (2 Bft) 95,65 %
17.01.2016 08:48 -1,2 C -2,2 C -2,8 C 93 % 0 lf 1024,2 hPa 0,0 l/m 0 min 0 min 14 W/m 8,4 km/h (2 Bft) 95,74 %
17.01.2016 08:50 -1,3 C -2,2 C -2,8 C 93 % 0 lf 1024,2 hPa 0,0 l/m 0 min 0 min 13 W/m 6,3 km/h (2 Bft) 95,74 %
17.01.2016 08:52 -1,3 C -2,2 C -2,8 C 93 % 0 lf 1024,2 hPa 0,0 l/m 0 min 0 min 12 W/m 8,4 km/h (2 Bft) 95,74 %
17.01.2016 08:54 -1,3 C -2,2 C -2,8 C 93 % 0 lf 1024,2 hPa 0,0 l/m 0 min 0 min 13 W/m 6,3 km/h (2 Bft) 100,00 %
17.01.2016 08:56 -1,3 C -1,7 C -2,8 C 93 % 0 lf 1024,2 hPa 0,0 l/m 0 min 0 min 14 W/m 4,2 km/h (1 Bft) 100,00 %
17.01.2016 08:58 -1,3 C -1,7 C -2,8 C 93 % 0 lf 1024,2 hPa 0,0 l/m 0 min 0 min 17 W/m 6,3 km/h (2 Bft) 97,83 %
17.01.2016 09:00 -1,4 C -1,7 C -2,8 C 93 % 0 lf 1024,2 hPa 0,0 l/m 0 min 0 min 18 W/m 6,3 km/h (2 Bft) 97,87 %
17.01.2016 09:02 -1,4 C -1,7 C -2,2 C 93 % 0 lf 1024,3 hPa 0,0 l/m 0 min 0 min 18 W/m 8,4 km/h (2 Bft) 100,00 %
17.01.2016 09:04 -1,4 C -1,1 C -2,2 C 93 % 0 lf 1024,3 hPa 0,0 l/m 0 min 0 min 19 W/m 6,3 km/h (2 Bft) 100,00 %
17.01.2016 09:06 -1,4 C -1,1 C -2,2 C 93 % 0 lf 1024,4 hPa 0,0 l/m 0 min 0 min 22 W/m 8,4 km/h (2 Bft) 95,74 %
17.01.2016 09:08 -1,4 C -1,1 C -2,2 C 93 % 0 lf 1024,5 hPa 0,0 l/m 0 min 0 min 31 W/m 8,4 km/h (2 Bft) 95,74 %
17.01.2016 09:10 -1,4 C -1,1 C -2,2 C 93 % 0 lf 1024,4 hPa 0,0 l/m 2 min 0 min 39 W/m 8,4 km/h (2 Bft) 95,65 %
17.01.2016 09:12 -1,4 C -0,6 C -1,7 C 93 % 0 lf 1024,5 hPa 0,0 l/m 2 min 0 min 45 W/m 8,4 km/h (2 Bft) 95,74 %
17.01.2016 09:14 -1,4 C -0,6 C -1,7 C 93 % 1 lf 1024,5 hPa 0,0 l/m 2 min 0 min 52 W/m 8,4 km/h (2 Bft) 95,74 %
17.01.2016 09:16 -1,4 C -0,6 C -1,7 C 93 % 0 lf 1024,6 hPa 0,0 l/m 2 min 0 min 51 W/m 10,5 km/h (2 Bft) 95,74 %
17.01.2016 09:18 -1,4 C -0,6 C -1,7 C 93 % 0 lf 1024,6 hPa 0,0 l/m 2 min 0 min 56 W/m 16,7 km/h (3 Bft) 95,74 %
17.01.2016 09:20 -1,3 C -0,6 C -1,7 C 93 % 0 lf 1024,5 hPa 0,0 l/m 2 min 0 min 53 W/m 18,8 km/h (3 Bft) 93,62 %
17.01.2016 09:22 -1,3 C -0,6 C -1,7 C 93 % 0 lf 1024,6 hPa 0,0 l/m 0 min 0 min 43 W/m 14,6 km/h (3 Bft) 91,30 %
17.01.2016 09:24 -1,3 C -0,6 C -2,2 C 93 % 0 lf 1024,7 hPa 0,0 l/m 0 min 0 min 38 W/m 10,5 km/h (2 Bft) 95,74 %
17.01.2016 09:26 -1,3 C -0,6 C -2,2 C 93 % 0 lf 1024,6 hPa 0,0 l/m 0 min 0 min 46 W/m 12,6 km/h (3 Bft) 89,36 %
17.01.2016 09:28 -1,3 C -0,6 C -2,2 C 93 % 0 lf 1024,7 hPa 0,0 l/m 0 min 0 min 42 W/m 18,8 km/h (3 Bft) 91,49 %
17.01.2016 09:30 -1,3 C -0,6 C -2,2 C 93 % 0 lf 1024,7 hPa 0,0 l/m 0 min 0 min 37 W/m 14,6 km/h (3 Bft) 95,74 %
17.01.2016 09:32 -1,3 C -0,6 C -2,2 C 93 % 0 lf 1024,7 hPa 0,0 l/m 0 min 0 min 38 W/m 14,6 km/h (3 Bft) 89,36 %
17.01.2016 09:34 -1,2 C -0,6 C -2,2 C 93 % 0 lf 1024,8 hPa 0,0 l/m 0 min 0 min 41 W/m 20,9 km/h (4 Bft) 91,30 %
17.01.2016 09:36 -1,2 C -0,6 C -2,2 C 93 % 0 lf 1024,8 hPa 0,0 l/m 0 min 0 min 57 W/m 14,6 km/h (3 Bft) 95,74 %
17.01.2016 09:38 -1,2 C -0,6 C -2,2 C 93 % 0 lf 1024,8 hPa 0,0 l/m 2 min 0 min 64 W/m 14,6 km/h (3 Bft) 93,62 %
17.01.2016 09:40 -1,2 C -0,6 C -2,2 C 93 % 0 lf 1024,8 hPa 0,0 l/m 2 min 0 min 76 W/m 18,8 km/h (3 Bft) 97,87 %
17.01.2016 09:42 -1,2 C -0,6 C -2,2 C 93 % 0 lf 1024,8 hPa 0,0 l/m 2 min 0 min 78 W/m 14,6 km/h (3 Bft) 97,87 %
17.01.2016 09:44 -1,2 C -0,6 C -2,2 C 93 % 0 lf 1024,8 hPa 0,0 l/m 2 min 0 min 83 W/m 18,8 km/h (3 Bft) 95,74 %
17.01.2016 09:46 -1,2 C -0,6 C -1,7 C 93 % 0 lf 1024,8 hPa 0,0 l/m 2 min 0 min 87 W/m 18,8 km/h (3 Bft) 97,83 %
17.01.2016 09:48 -1,2 C -0,6 C -1,7 C 93 % 0 lf 1024,8 hPa 0,0 l/m 2 min 0 min 91 W/m 8,4 km/h (2 Bft) 97,87 %
17.01.2016 09:50 -1,2 C -0,6 C -1,7 C 93 % 0 lf 1024,8 hPa 0,0 l/m 2 min 0 min 94 W/m 16,7 km/h (3 Bft) 97,87 %
17.01.2016 09:52 -1,2 C -0,6 C -1,7 C 93 % 0 lf 1024,8 hPa 0,0 l/m 2 min 0 min 96 W/m 16,7 km/h (3 Bft) 93,62 %
17.01.2016 09:54 -1,1 C -0,6 C -1,7 C 93 % 0 lf 1024,8 hPa 0,0 l/m 2 min 0 min 100 W/m 18,8 km/h (3 Bft) 97,87 %
17.01.2016 09:56 -1,1 C -0,6 C -1,7 C 93 % 0 lf 1024,8 hPa 0,0 l/m 2 min 0 min 103 W/m 10,5 km/h (2 Bft) 97,83 %
17.01.2016 09:58 -1,1 C -0,6 C -1,7 C 93 % 0 lf 1024,8 hPa 0,0 l/m 2 min 0 min 107 W/m 8,4 km/h (2 Bft) 97,87 %
17.01.2016 10:00 -1,1 C -0,6 C -1,7 C 93 % 0 lf 1024,8 hPa 0,0 l/m 2 min 0 min 111 W/m 8,4 km/h (2 Bft) 97,87 %
17.01.2016 10:02 -1,1 C 0,0 C -1,7 C 93 % 0 lf 1024,9 hPa 0,0 l/m 2 min 0 min 115 W/m 8,4 km/h (2 Bft) 97,87 %
17.01.2016 10:04 -1,1 C 0,0 C -1,7 C 93 % 0 lf 1024,9 hPa 0,0 l/m 2 min 0 min 119 W/m 12,6 km/h (3 Bft) 95,74 %
17.01.2016 10:06 -1,1 C 0,0 C -1,7 C 93 % 0 lf 1024,9 hPa 0,0 l/m 2 min 0 min 122 W/m 12,6 km/h (3 Bft) 100,00 %
17.01.2016 10:08 -1,1 C 0,0 C -1,7 C 93 % 0 lf 1024,9 hPa 0,0 l/m 2 min 0 min 127 W/m 18,8 km/h (3 Bft) 97,83 %
17.01.2016 10:10 -1,0 C 0,0 C -1,7 C 93 % 0 lf 1024,9 hPa 0,0 l/m 2 min 0 min 129 W/m 10,5 km/h (2 Bft) 100,00 %
17.01.2016 10:12 -1,0 C 0,0 C -1,7 C 94 % 0 lf 1024,9 hPa 0,0 l/m 2 min 0 min 132 W/m 12,6 km/h (3 Bft) 95,74 %
17.01.2016 10:14 -0,9 C 0,0 C -1,7 C 94 % 0 lf 1025,0 hPa 0,0 l/m 2 min 0 min 138 W/m 14,6 km/h (3 Bft) 97,87 %
17.01.2016 10:16 -0,9 C 0,0 C -1,7 C 94 % 0 lf 1025,0 hPa 0,0 l/m 2 min 0 min 141 W/m 12,6 km/h (3 Bft) 97,87 %
17.01.2016 10:18 -0,9 C 0,0 C -1,7 C 94 % 0 lf 1025,0 hPa 0,0 l/m 2 min 0 min 134 W/m 12,6 km/h (3 Bft) 97,87 %
17.01.2016 10:20 -0,9 C 0,0 C -1,1 C 94 % 0 lf 1025,0 hPa 0,0 l/m 2 min 0 min 140 W/m 12,6 km/h (3 Bft) 97,83 %
17.01.2016 10:22 -0,8 C 0,6 C -1,1 C 94 % 0 lf 1025,0 hPa 0,0 l/m 2 min 0 min 147 W/m 10,5 km/h (2 Bft) 100,00 %
17.01.2016 10:24 -0,8 C 0,6 C -1,1 C 94 % 1 lf 1025,1 hPa 0,0 l/m 2 min 0 min 144 W/m 10,5 km/h (2 Bft) 97,87 %
17.01.2016 10:26 -0,8 C 0,6 C -1,1 C 93 % 1 lf 1025,1 hPa 0,0 l/m 2 min 0 min 159 W/m 12,6 km/h (3 Bft) 97,87 %
17.01.2016 10:28 -0,8 C 1,1 C -1,1 C 93 % 1 lf 1025,1 hPa 0,0 l/m 2 min 0 min 172 W/m 16,7 km/h (3 Bft) 97,87 %
17.01.2016 10:30 -0,7 C 1,1 C -1,1 C 93 % 1 lf 1025,2 hPa 0,0 l/m 2 min 0 min 107 W/m 18,8 km/h (3 Bft) 100,00 %
17.01.2016 10:32 -0,7 C 1,1 C -1,1 C 93 % 1 lf 1025,1 hPa 0,0 l/m 2 min 0 min 158 W/m 14,6 km/h (3 Bft) 97,83 %
17.01.2016 10:34 -0,7 C 1,7 C -1,1 C 93 % 1 lf 1025,2 hPa 0,0 l/m 2 min 0 min 167 W/m 10,5 km/h (2 Bft) 97,87 %
17.01.2016 10:36 -0,7 C 2,2 C -1,1 C 93 % 1 lf 1025,2 hPa 0,0 l/m 2 min 0 min 170 W/m 16,7 km/h (3 Bft) 100,00 %
17.01.2016 10:38 -0,6 C 2,8 C -1,1 C 93 % 1 lf 1025,2 hPa 0,0 l/m 2 min 0 min 174 W/m 14,6 km/h (3 Bft) 97,87 %
17.01.2016 10:40 -0,6 C 3,9 C -1,1 C 93 % 1 lf 1025,1 hPa 0,0 l/m 2 min 0 min 177 W/m 14,6 km/h (3 Bft) 97,87 %
17.01.2016 10:42 -0,6 C 4,4 C -1,1 C 93 % 1 lf 1025,2 hPa 0,0 l/m 2 min 0 min 159 W/m 12,6 km/h (3 Bft) 100,00 %
17.01.2016 10:44 -0,5 C 4,4 C -1,1 C 93 % 1 lf 1025,1 hPa 0,0 l/m 2 min 0 min 180 W/m 10,5 km/h (2 Bft) 95,65 %
17.01.2016 10:46 -0,5 C 5,0 C -1,1 C 93 % 1 lf 1025,2 hPa 0,0 l/m 2 min 0 min 178 W/m 10,5 km/h (2 Bft) 95,74 %
17.01.2016 10:48 -0,5 C 4,4 C -1,1 C 93 % 1 lf 1025,2 hPa 0,0 l/m 2 min 0 min 202 W/m 14,6 km/h (3 Bft) 95,74 %
17.01.2016 10:50 -0,4 C 4,4 C -0,6 C 93 % 1 lf 1025,3 hPa 0,0 l/m 2 min 0 min 211 W/m 16,7 km/h (3 Bft) 95,74 %
17.01.2016 10:52 -0,4 C 4,4 C -0,6 C 93 % 1 lf 1025,3 hPa 0,0 l/m 2 min 0 min 205 W/m 10,5 km/h (2 Bft) 91,49 %
17.01.2016 10:54 -0,3 C 5,0 C -0,6 C 93 % 1 lf 1025,3 hPa 0,0 l/m 2 min 0 min 202 W/m 12,6 km/h (3 Bft) 95,74 %
17.01.2016 10:56 -0,3 C 4,4 C -0,6 C 93 % 1 lf 1025,4 hPa 0,0 l/m 2 min 0 min 188 W/m 14,6 km/h (3 Bft) 95,65 %
17.01.2016 10:58 -0,3 C 3,9 C -0,6 C 93 % 1 lf 1025,4 hPa 0,0 l/m 2 min 0 min 182 W/m 16,7 km/h (3 Bft) 95,74 %
17.01.2016 11:00 -0,3 C 3,3 C -0,6 C 93 % 1 lf 1025,4 hPa 0,0 l/m 2 min 0 min 133 W/m 14,6 km/h (3 Bft) 97,87 %
17.01.2016 11:02 -0,2 C 3,9 C -0,6 C 93 % 1 lf 1025,4 hPa 0,0 l/m 2 min 0 min 128 W/m 12,6 km/h (3 Bft) 93,62 %
17.01.2016 11:04 -0,2 C 5,6 C -0,6 C 92 % 1 lf 1025,4 hPa 0,0 l/m 2 min 0 min 229 W/m 12,6 km/h (3 Bft) 93,62 %
17.01.2016 11:06 -0,2 C 6,1 C -0,6 C 93 % 1 lf 1025,4 hPa 0,0 l/m 2 min 0 min 219 W/m 10,5 km/h (2 Bft) 91,49 %
17.01.2016 11:08 -0,2 C 6,1 C -0,6 C 92 % 1 lf 1025,4 hPa 0,0 l/m 2 min 0 min 145 W/m 12,6 km/h (3 Bft) 91,30 %
17.01.2016 11:10 -0,2 C 7,2 C -0,6 C 92 % 1 lf 1025,5 hPa 0,0 l/m 2 min 0 min 162 W/m 12,6 km/h (3 Bft) 87,23 %
17.01.2016 11:12 -0,1 C 6,7 C -0,6 C 92 % 1 lf 1025,4 hPa 0,0 l/m 2 min 0 min 230 W/m 14,6 km/h (3 Bft) 89,36 %
17.01.2016 11:14 -0,1 C 5,0 C -0,6 C 92 % 1 lf 1025,5 hPa 0,0 l/m 0 min 0 min 130 W/m 16,7 km/h (3 Bft) 93,62 %
17.01.2016 11:16 -0,1 C 6,1 C -0,6 C 92 % 1 lf 1025,6 hPa 0,0 l/m 2 min 0 min 144 W/m 10,5 km/h (2 Bft) 93,62 %
17.01.2016 11:18 -0,1 C 7,8 C -0,6 C 92 % 1 lf 1025,6 hPa 0,0 l/m 2 min 0 min 243 W/m 12,6 km/h (3 Bft) 93,48 %
17.01.2016 11:20 -0,1 C 7,2 C -0,6 C 92 % 2 lf 1025,7 hPa 0,0 l/m 2 min 0 min 169 W/m 10,5 km/h (2 Bft) 91,49 %
17.01.2016 11:22 0,0 C 6,1 C -0,6 C 92 % 1 lf 1025,8 hPa 0,0 l/m 0 min 0 min 99 W/m 14,6 km/h (3 Bft) 95,74 %
17.01.2016 11:24 0,0 C 6,7 C -0,6 C 92 % 2 lf 1025,8 hPa 0,0 l/m 2 min 0 min 243 W/m 12,6 km/h (3 Bft) 91,49 %
17.01.2016 11:26 0,1 C 7,2 C -0,6 C 91 % 2 lf 1025,7 hPa 0,0 l/m 2 min 0 min 248 W/m 12,6 km/h (3 Bft) 93,62 %
17.01.2016 11:28 0,1 C 7,8 C -0,6 C 91 % 3 lf 1025,7 hPa 0,0 l/m 2 min 0 min 253 W/m 12,6 km/h (3 Bft) 93,62 %
17.01.2016 11:30 0,1 C 7,2 C -0,6 C 91 % 3 lf 1025,8 hPa 0,0 l/m 2 min 0 min 214 W/m 16,7 km/h (3 Bft) 93,48 %
17.01.2016 11:32 0,1 C 7,8 C -0,6 C 91 % 4 lf 1025,8 hPa 0,0 l/m 2 min 0 min 249 W/m 14,6 km/h (3 Bft) 91,49 %
17.01.2016 11:34 0,2 C 7,8 C -0,6 C 91 % 4 lf 1025,8 hPa 0,0 l/m 2 min 0 min 244 W/m 12,6 km/h (3 Bft) 91,49 %
17.01.2016 11:36 0,2 C 7,2 C -0,6 C 91 % 7 lf 1025,8 hPa 0,0 l/m 2 min 0 min 243 W/m 16,7 km/h (3 Bft) 95,74 %
17.01.2016 11:38 0,2 C 7,2 C -0,6 C 91 % 9 lf 1025,8 hPa 0,0 l/m 2 min 0 min 257 W/m 12,6 km/h (3 Bft) 89,36 %
17.01.2016 11:40 0,3 C 7,8 C -0,6 C 90 % 10 lf 1025,8 hPa 0,0 l/m 2 min 0 min 270 W/m 12,6 km/h (3 Bft) 100,00 %
17.01.2016 11:42 0,3 C 8,3 C -0,6 C 90 % 11 lf 1025,7 hPa 0,2 l/m 2 min 0 min 283 W/m 10,5 km/h (2 Bft) 97,83 %
17.01.2016 11:44 0,4 C 8,9 C -0,6 C 90 % 12 lf 1025,8 hPa 0,0 l/m 2 min 0 min 273 W/m 18,8 km/h (3 Bft) 95,74 %
17.01.2016 11:46 0,4 C 7,8 C -0,6 C 90 % 13 lf 1025,7 hPa 0,0 l/m 2 min 0 min 205 W/m 12,6 km/h (3 Bft) 95,74 %
17.01.2016 11:48 0,4 C 7,8 C 0,0 C 89 % 13 lf 1025,8 hPa 0,0 l/m 2 min 0 min 217 W/m 14,6 km/h (3 Bft) 97,87 %
17.01.2016 11:50 0,4 C 8,3 C 0,0 C 89 % 13 lf 1025,9 hPa 0,0 l/m 2 min 0 min 284 W/m 12,6 km/h (3 Bft) 95,74 %
17.01.2016 11:52 0,5 C 8,9 C 0,0 C 89 % 14 lf 1025,9 hPa 0,0 l/m 2 min 0 min 291 W/m 10,5 km/h (2 Bft) 97,87 %
17.01.2016 11:54 0,5 C 8,9 C 0,0 C 89 % 14 lf 1025,9 hPa 0,0 l/m 2 min 0 min 269 W/m 12,6 km/h (3 Bft) 100,00 %
17.01.2016 11:56 0,5 C 9,4 C 0,0 C 88 % 14 lf 1025,8 hPa 0,0 l/m 2 min 0 min 277 W/m 10,5 km/h (2 Bft) 93,62 %
17.01.2016 11:58 0,6 C 9,4 C 0,0 C 88 % 14 lf 1025,8 hPa 0,0 l/m 2 min 0 min 283 W/m 12,6 km/h (3 Bft) 100,00 %
17.01.2016 12:00 0,6 C 10,6 C 0,0 C 88 % 14 lf 1025,8 hPa 0,0 l/m 2 min 0 min 294 W/m 10,5 km/h (2 Bft) 95,74 %
17.01.2016 12:02 0,7 C 10,6 C 0,0 C 88 % 14 lf 1025,9 hPa 0,0 l/m 2 min 0 min 293 W/m 12,6 km/h (3 Bft) 97,87 %
17.01.2016 12:04 0,7 C 9,4 C 0,0 C 87 % 14 lf 1025,9 hPa 0,0 l/m 2 min 0 min 292 W/m 14,6 km/h (3 Bft) 97,83 %
17.01.2016 12:06 0,7 C 7,8 C 0,0 C 87 % 14 lf 1025,9 hPa 0,0 l/m 2 min 0 min 196 W/m 16,7 km/h (3 Bft) 97,87 %
17.01.2016 12:08 0,7 C 5,0 C 0,0 C 87 % 14 lf 1025,9 hPa 0,0 l/m 0 min 0 min 122 W/m 18,8 km/h (3 Bft) 93,62 %
17.01.2016 12:10 0,7 C 6,1 C 0,0 C 87 % 14 lf 1025,9 hPa 0,0 l/m 2 min 0 min 200 W/m 12,6 km/h (3 Bft) 95,74 %
17.01.2016 12:12 0,7 C 6,7 C 0,0 C 86 % 14 lf 1025,9 hPa 0,0 l/m 2 min 0 min 295 W/m 8,4 km/h (2 Bft) 97,87 %
17.01.2016 12:14 0,7 C 8,9 C 0,0 C 86 % 14 lf 1025,9 hPa 0,0 l/m 2 min 0 min 311 W/m 8,4 km/h (2 Bft) 97,87 %
17.01.2016 12:16 0,8 C 10,6 C 0,0 C 86 % 13 lf 1025,9 hPa 0,0 l/m 2 min 0 min 303 W/m 10,5 km/h (2 Bft) 97,87 %
17.01.2016 12:18 0,8 C 9,4 C 0,0 C 85 % 13 lf 1026,0 hPa 0,0 l/m 2 min 0 min 301 W/m 14,6 km/h (3 Bft) 97,83 %
17.01.2016 12:20 0,8 C 7,8 C 0,0 C 85 % 12 lf 1025,9 hPa 0,0 l/m 2 min 0 min 308 W/m 12,6 km/h (3 Bft) 93,62 %
17.01.2016 12:22 0,8 C 8,3 C 0,0 C 85 % 11 lf 1025,9 hPa 0,0 l/m 2 min 0 min 304 W/m 8,4 km/h (2 Bft) 97,87 %
17.01.2016 12:24 0,8 C 9,4 C 0,0 C 85 % 10 lf 1025,9 hPa 0,0 l/m 2 min 0 min 302 W/m 10,5 km/h (2 Bft) 93,62 %
17.01.2016 12:26 0,9 C 7,8 C 0,0 C 85 % 6 lf 1025,9 hPa 0,0 l/m 2 min 0 min 242 W/m 12,6 km/h (3 Bft) 95,74 %
17.01.2016 12:28 0,9 C 8,3 C 0,0 C 84 % 4 lf 1025,9 hPa 0,0 l/m 2 min 0 min 241 W/m 10,5 km/h (2 Bft) 97,83 %
17.01.2016 12:30 0,9 C 8,3 C 0,0 C 84 % 3 lf 1025,9 hPa 0,0 l/m 2 min 0 min 258 W/m 12,6 km/h (3 Bft) 97,87 %
17.01.2016 12:32 1,0 C 8,3 C 0,0 C 84 % 1 lf 1025,9 hPa 0,0 l/m 2 min 0 min 254 W/m 12,6 km/h (3 Bft) 97,87 %
17.01.2016 12:34 1,0 C 8,9 C 0,0 C 84 % 0 lf 1025,9 hPa 0,0 l/m 2 min 0 min 286 W/m 12,6 km/h (3 Bft) 97,87 %
17.01.2016 12:36 1,1 C 7,8 C 0,0 C 84 % 0 lf 1025,9 hPa 0,0 l/m 2 min 0 min 234 W/m 14,6 km/h (3 Bft) 93,62 %
17.01.2016 12:38 1,1 C 6,7 C 0,0 C 83 % 0 lf 1025,9 hPa 0,0 l/m 2 min 0 min 224 W/m 12,6 km/h (3 Bft) 97,87 %
17.01.2016 12:40 1,1 C 5,6 C 0,0 C 83 % 0 lf 1025,9 hPa 0,0 l/m 0 min 0 min 134 W/m 16,7 km/h (3 Bft) 97,83 %
17.01.2016 12:42 1,1 C 6,1 C 0,0 C 83 % 0 lf 1026,0 hPa 0,0 l/m 2 min 0 min 235 W/m 14,6 km/h (3 Bft) 95,74 %
17.01.2016 12:44 1,1 C 5,6 C 0,0 C 83 % 0 lf 1026,0 hPa 0,0 l/m 2 min 0 min 244 W/m 12,6 km/h (3 Bft) 97,87 %
17.01.2016 12:46 1,1 C 5,6 C 0,0 C 82 % 0 lf 1025,9 hPa 0,0 l/m 2 min 0 min 180 W/m 16,7 km/h (3 Bft) 93,62 %
17.01.2016 12:48 1,1 C 5,6 C 0,6 C 82 % 0 lf 1026,0 hPa 0,0 l/m 2 min 0 min 232 W/m 10,5 km/h (2 Bft) 95,74 %
17.01.2016 12:50 1,1 C 6,1 C 0,6 C 82 % 0 lf 1026,1 hPa 0,0 l/m 2 min 0 min 306 W/m 14,6 km/h (3 Bft) 97,87 %
17.01.2016 12:52 1,2 C 6,1 C 0,6 C 82 % 0 lf 1026,0 hPa 0,0 l/m 2 min 0 min 237 W/m 10,5 km/h (2 Bft) 97,83 %
17.01.2016 12:54 1,2 C 6,1 C 0,6 C 82 % 0 lf 1026,1 hPa 0,0 l/m 2 min 0 min 222 W/m 12,6 km/h (3 Bft) 97,87 %
17.01.2016 12:56 1,2 C 5,0 C 0,6 C 82 % 0 lf 1026,1 hPa 0,0 l/m 2 min 0 min 188 W/m 12,6 km/h (3 Bft) 95,74 %
17.01.2016 12:58 1,2 C 5,0 C 0,6 C 82 % 0 lf 1026,0 hPa 0,0 l/m 0 min 0 min 155 W/m 10,5 km/h (2 Bft) 95,74 %
17.01.2016 13:00 1,2 C 4,4 C 1,1 C 82 % 0 lf 1026,0 hPa 0,0 l/m 2 min 0 min 157 W/m 14,6 km/h (3 Bft) 97,87 %
17.01.2016 13:02 1,3 C 3,9 C 0,6 C 82 % 0 lf 1026,0 hPa 0,0 l/m 0 min 0 min 145 W/m 14,6 km/h (3 Bft) 97,87 %
17.01.2016 13:04 1,3 C 3,3 C 0,6 C 82 % 0 lf 1026,0 hPa 0,0 l/m 0 min 0 min 116 W/m 10,5 km/h (2 Bft) 97,83 %
17.01.2016 13:06 1,3 C 3,3 C 0,6 C 82 % 0 lf 1026,0 hPa 0,0 l/m 0 min 0 min 104 W/m 8,4 km/h (2 Bft) 97,87 %
17.01.2016 13:08 1,2 C 2,8 C 0,6 C 82 % 0 lf 1026,0 hPa 0,0 l/m 0 min 0 min 103 W/m 12,6 km/h (3 Bft) 97,87 %
17.01.2016 13:10 1,2 C 2,8 C 0,6 C 82 % 0 lf 1026,0 hPa 0,0 l/m 0 min 0 min 100 W/m 16,7 km/h (3 Bft) 100,00 %
17.01.2016 13:12 1,2 C 2,2 C 0,6 C 82 % 0 lf 1026,0 hPa 0,0 l/m 0 min 0 min 99 W/m 8,4 km/h (2 Bft) 97,87 %
17.01.2016 13:14 1,2 C 2,2 C 0,6 C 82 % 0 lf 1026,0 hPa 0,0 l/m 0 min 0 min 100 W/m 12,6 km/h (3 Bft) 97,87 %
17.01.2016 13:16 1,2 C 2,2 C 0,6 C 82 % 0 lf 1026,0 hPa 0,0 l/m 0 min 0 min 97 W/m 12,6 km/h (3 Bft) 95,65 %
17.01.2016 13:18 1,2 C 2,2 C 0,0 C 82 % 0 lf 1026,0 hPa 0,0 l/m 0 min 0 min 104 W/m 14,6 km/h (3 Bft) 100,00 %
17.01.2016 13:20 1,2 C 2,2 C 0,0 C 82 % 0 lf 1026,0 hPa 0,0 l/m 0 min 0 min 121 W/m 10,5 km/h (2 Bft) 100,00 %
17.01.2016 13:22 1,1 C 2,2 C 0,0 C 82 % 0 lf 1025,9 hPa 0,0 l/m 0 min 0 min 122 W/m 10,5 km/h (2 Bft) 95,74 %
17.01.2016 13:24 1,1 C 2,2 C 0,0 C 82 % 0 lf 1026,0 hPa 0,0 l/m 0 min 0 min 107 W/m 12,6 km/h (3 Bft) 97,87 %
17.01.2016 13:26 1,1 C 2,2 C 0,0 C 82 % 0 lf 1025,9 hPa 0,0 l/m 0 min 0 min 119 W/m 10,5 km/h (2 Bft) 95,65 %
17.01.2016 13:28 1,1 C 2,8 C 0,6 C 82 % 0 lf 1026,0 hPa 0,0 l/m 2 min 0 min 152 W/m 10,5 km/h (2 Bft) 93,62 %
17.01.2016 13:30 1,1 C 2,8 C 0,6 C 82 % 0 lf 1026,0 hPa 0,0 l/m 2 min 0 min 173 W/m 14,6 km/h (3 Bft) 95,74 %
17.01.2016 13:32 1,1 C 3,3 C 0,6 C 82 % 0 lf 1026,0 hPa 0,0 l/m 2 min 0 min 190 W/m 12,6 km/h (3 Bft) 97,87 %
17.01.2016 13:34 1,1 C 3,3 C 0,6 C 82 % 0 lf 1026,0 hPa 0,0 l/m 0 min 0 min 131 W/m 8,4 km/h (2 Bft) 95,74 %
17.01.2016 13:36 1,1 C 3,3 C 0,6 C 82 % 0 lf 1026,0 hPa 0,0 l/m 0 min 0 min 108 W/m 6,3 km/h (2 Bft) 95,74 %
17.01.2016 13:38 1,1 C 2,8 C 0,6 C 82 % 0 lf 1026,0 hPa 0,0 l/m 0 min 0 min 99 W/m 16,7 km/h (3 Bft) 97,83 %
17.01.2016 13:40 1,1 C 2,8 C 0,6 C 83 % 0 lf 1026,1 hPa 0,0 l/m 0 min 0 min 91 W/m 10,5 km/h (2 Bft) 93,62 %
17.01.2016 13:42 1,1 C 2,8 C 0,6 C 83 % 0 lf 1026,1 hPa 0,0 l/m 0 min 0 min 89 W/m 14,6 km/h (3 Bft) 97,87 %
17.01.2016 13:44 1,1 C 2,2 C 0,6 C 83 % 0 lf 1026,1 hPa 0,0 l/m 0 min 0 min 95 W/m 16,7 km/h (3 Bft) 97,87 %
17.01.2016 13:46 1,1 C 2,2 C 0,6 C 83 % 0 lf 1026,1 hPa 0,0 l/m 0 min 0 min 108 W/m 8,4 km/h (2 Bft) 95,74 %
17.01.2016 13:48 1,1 C 2,2 C 0,6 C 82 % 0 lf 1026,1 hPa 0,0 l/m 0 min 0 min 131 W/m 8,4 km/h (2 Bft) 97,87 %
17.01.2016 13:50 1,1 C 2,2 C 0,6 C 82 % 0 lf 1026,0 hPa 0,0 l/m 2 min 0 min 149 W/m 12,6 km/h (3 Bft) 93,48 %
17.01.2016 13:52 1,0 C 2,2 C 0,6 C 82 % 0 lf 1026,0 hPa 0,0 l/m 2 min 0 min 150 W/m 12,6 km/h (3 Bft) 91,49 %
17.01.2016 13:54 1,0 C 2,8 C 0,6 C 82 % 0 lf 1026,0 hPa 0,0 l/m 0 min 0 min 142 W/m 10,5 km/h (2 Bft) 95,74 %
17.01.2016 13:56 1,0 C 2,8 C 0,6 C 82 % 0 lf 1026,0 hPa 0,0 l/m 0 min 0 min 127 W/m 8,4 km/h (2 Bft) 95,74 %
17.01.2016 13:58 1,0 C 2,8 C 0,6 C 82 % 0 lf 1026,0 hPa 0,0 l/m 0 min 0 min 116 W/m 8,4 km/h (2 Bft) 93,62 %
17.01.2016 14:00 1,0 C 2,8 C 0,6 C 82 % 0 lf 1026,0 hPa 0,0 l/m 0 min 0 min 117 W/m 12,6 km/h (3 Bft) 95,74 %
17.01.2016 14:02 1,0 C 2,8 C 0,6 C 82 % 0 lf 1026,0 hPa 0,0 l/m 0 min 0 min 128 W/m 8,4 km/h (2 Bft) 91,30 %
17.01.2016 14:04 1,1 C 2,8 C 0,6 C 82 % 0 lf 1026,0 hPa 0,0 l/m 0 min 0 min 138 W/m 8,4 km/h (2 Bft) 87,23 %
17.01.2016 14:06 1,1 C 2,8 C 0,6 C 82 % 0 lf 1025,9 hPa 0,0 l/m 2 min 0 min 140 W/m 8,4 km/h (2 Bft) 95,74 %
17.01.2016 14:08 1,0 C 2,8 C 0,6 C 82 % 0 lf 1025,9 hPa 0,0 l/m 0 min 0 min 132 W/m 10,5 km/h (2 Bft) 91,49 %
17.01.2016 14:10 1,1 C 2,8 C 0,6 C 82 % 0 lf 1025,9 hPa 0,0 l/m 0 min 0 min 123 W/m 10,5 km/h (2 Bft) 93,62 %
17.01.2016 14:12 1,1 C 2,8 C 0,6 C 82 % 0 lf 1025,8 hPa 0,0 l/m 0 min 0 min 113 W/m 10,5 km/h (2 Bft) 93,62 %
17.01.2016 14:14 1,1 C 2,8 C 0,6 C 83 % 0 lf 1025,9 hPa 0,0 l/m 0 min 0 min 102 W/m 8,4 km/h (2 Bft) 91,30 %
17.01.2016 14:16 1,1 C 2,8 C 0,6 C 83 % 0 lf 1025,9 hPa 0,0 l/m 0 min 0 min 96 W/m 12,6 km/h (3 Bft) 91,49 %
17.01.2016 14:18 1,1 C 2,2 C 0,6 C 83 % 0 lf 1025,9 hPa 0,0 l/m 0 min 0 min 98 W/m 10,5 km/h (2 Bft) 93,62 %
17.01.2016 14:20 1,1 C 2,2 C 0,6 C 83 % 0 lf 1026,0 hPa 0,0 l/m 0 min 0 min 108 W/m 8,4 km/h (2 Bft) 93,62 %
17.01.2016 14:22 1,1 C 2,8 C 0,6 C 83 % 0 lf 1026,0 hPa 0,0 l/m 0 min 0 min 113 W/m 8,4 km/h (2 Bft) 91,49 %
17.01.2016 14:24 1,1 C 2,8 C 0,6 C 83 % 0 lf 1026,0 hPa 0,0 l/m 0 min 0 min 107 W/m 8,4 km/h (2 Bft) 93,48 %
17.01.2016 14:26 1,1 C 2,8 C 0,6 C 83 % 0 lf 1025,9 hPa 0,0 l/m 0 min 0 min 103 W/m 6,3 km/h (2 Bft) 93,62 %
17.01.2016 14:28 1,1 C 2,8 C 0,6 C 83 % 0 lf 1025,9 hPa 0,0 l/m 0 min 0 min 98 W/m 8,4 km/h (2 Bft) 95,74 %
17.01.2016 14:30 1,1 C 2,2 C 0,6 C 82 % 0 lf 1026,0 hPa 0,0 l/m 0 min 0 min 92 W/m 8,4 km/h (2 Bft) 93,62 %
17.01.2016 14:32 1,1 C 2,2 C 0,6 C 82 % 0 lf 1026,0 hPa 0,0 l/m 0 min 0 min 85 W/m 8,4 km/h (2 Bft) 93,62 %
17.01.2016 14:34 1,1 C 2,2 C 0,6 C 82 % 0 lf 1026,0 hPa 0,0 l/m 0 min 0 min 72 W/m 6,3 km/h (2 Bft) 97,87 %
17.01.2016 14:36 1,1 C 2,2 C 0,6 C 82 % 0 lf 1026,0 hPa 0,0 l/m 0 min 0 min 60 W/m 8,4 km/h (2 Bft) 97,83 %
17.01.2016 14:38 1,1 C 2,2 C 0,6 C 82 % 0 lf 1026,0 hPa 0,0 l/m 0 min 0 min 55 W/m 6,3 km/h (2 Bft) 93,62 %
17.01.2016 14:40 1,1 C 2,2 C 0,6 C 82 % 0 lf 1026,0 hPa 0,0 l/m 0 min 0 min 51 W/m 4,2 km/h (1 Bft) 93,62 %
17.01.2016 14:42 1,1 C 2,2 C 0,6 C 82 % 0 lf 1026,1 hPa 0,0 l/m 0 min 0 min 47 W/m 8,4 km/h (2 Bft) 95,74 %
17.01.2016 14:44 1,1 C 1,7 C 0,6 C 82 % 0 lf 1026,1 hPa 0,0 l/m 0 min 0 min 47 W/m 10,5 km/h (2 Bft) 93,62 %
17.01.2016 14:46 1,1 C 1,7 C 0,0 C 82 % 0 lf 1026,1 hPa 0,0 l/m 0 min 0 min 52 W/m 6,3 km/h (2 Bft) 93,62 %
17.01.2016 14:48 1,1 C 1,7 C 0,6 C 82 % 0 lf 1026,1 hPa 0,0 l/m 0 min 0 min 56 W/m 6,3 km/h (2 Bft) 97,83 %
17.01.2016 14:50 1,1 C 1,7 C 0,6 C 82 % 0 lf 1026,1 hPa 0,0 l/m 0 min 0 min 57 W/m 8,4 km/h (2 Bft) 95,74 %
17.01.2016 14:52 1,1 C 1,7 C 0,6 C 82 % 0 lf 1026,1 hPa 0,0 l/m 0 min 0 min 57 W/m 8,4 km/h (2 Bft) 97,87 %
17.01.2016 14:54 1,1 C 1,7 C 0,6 C 82 % 0 lf 1026,1 hPa 0,0 l/m 0 min 0 min 56 W/m 8,4 km/h (2 Bft) 100,00 %
17.01.2016 14:56 1,1 C 1,7 C 0,6 C 82 % 0 lf 1026,1 hPa 0,0 l/m 0 min 0 min 56 W/m 8,4 km/h (2 Bft) 100,00 %
17.01.2016 14:58 1,1 C 1,7 C 0,0 C 81 % 0 lf 1026,1 hPa 0,0 l/m 0 min 0 min 56 W/m 8,4 km/h (2 Bft) 100,00 %
17.01.2016 15:00 1,0 C 1,7 C 0,0 C 81 % 0 lf 1026,1 hPa 0,0 l/m 0 min 0 min 56 W/m 6,3 km/h (2 Bft) 100,00 %
17.01.2016 15:02 1,0 C 1,7 C 0,0 C 81 % 0 lf 1026,1 hPa 0,0 l/m 0 min 0 min 54 W/m 4,2 km/h (1 Bft) 100,00 %
17.01.2016 15:04 1,0 C 1,7 C 0,6 C 81 % 0 lf 1026,1 hPa 0,0 l/m 0 min 0 min 54 W/m 4,2 km/h (1 Bft) 100,00 %
17.01.2016 15:06 1,0 C 1,7 C 0,6 C 81 % 0 lf 1026,1 hPa 0,0 l/m 0 min 0 min 50 W/m 4,2 km/h (1 Bft) 97,87 %
17.01.2016 15:08 1,0 C 1,7 C 0,6 C 81 % 0 lf 1026,2 hPa 0,0 l/m 0 min 0 min 46 W/m 4,2 km/h (1 Bft) 97,87 %
17.01.2016 15:10 1,0 C 1,7 C 0,0 C 81 % 0 lf 1026,2 hPa 0,0 l/m 0 min 0 min 43 W/m 6,3 km/h (2 Bft) 93,62 %
17.01.2016 15:12 1,0 C 1,7 C 0,0 C 81 % 0 lf 1026,2 hPa 0,0 l/m 0 min 0 min 41 W/m 4,2 km/h (1 Bft) 97,83 %
17.01.2016 15:14 1,0 C 1,7 C 0,0 C 81 % 0 lf 1026,2 hPa 0,0 l/m 0 min 0 min 37 W/m 6,3 km/h (2 Bft) 95,74 %
17.01.2016 15:16 1,0 C 1,7 C 0,0 C 81 % 0 lf 1026,3 hPa 0,0 l/m 0 min 0 min 34 W/m 6,3 km/h (2 Bft) 95,74 %
17.01.2016 15:18 1,0 C 1,7 C 0,0 C 81 % 0 lf 1026,2 hPa 0,0 l/m 0 min 0 min 32 W/m 8,4 km/h (2 Bft) 95,74 %
17.01.2016 15:20 1,0 C 1,7 C 0,0 C 81 % 0 lf 1026,3 hPa 0,0 l/m 0 min 0 min 30 W/m 6,3 km/h (2 Bft) 97,87 %
17.01.2016 15:22 1,0 C 1,7 C 0,0 C 81 % 0 lf 1026,3 hPa 0,0 l/m 0 min 0 min 28 W/m 4,2 km/h (1 Bft) 97,87 %
17.01.2016 15:24 1,0 C 1,7 C 0,0 C 81 % 0 lf 1026,3 hPa 0,0 l/m 0 min 0 min 26 W/m 4,2 km/h (1 Bft) 95,65 %
17.01.2016 15:26 1,0 C 1,1 C 0,0 C 81 % 0 lf 1026,3 hPa 0,0 l/m 0 min 0 min 25 W/m 6,3 km/h (2 Bft) 97,87 %
17.01.2016 15:28 1,0 C 1,1 C 0,0 C 81 % 0 lf 1026,3 hPa 0,0 l/m 0 min 0 min 24 W/m 6,3 km/h (2 Bft) 95,74 %
17.01.2016 15:30 1,0 C 1,1 C 0,0 C 81 % 0 lf 1026,3 hPa 0,0 l/m 0 min 0 min 22 W/m 4,2 km/h (1 Bft) 95,74 %
17.01.2016 15:32 1,0 C 1,1 C 0,0 C 81 % 0 lf 1026,3 hPa 0,0 l/m 0 min 0 min 19 W/m 6,3 km/h (2 Bft) 91,49 %
17.01.2016 15:34 0,9 C 1,1 C 0,0 C 81 % 0 lf 1026,3 hPa 0,0 l/m 0 min 0 min 17 W/m 6,3 km/h (2 Bft) 95,74 %
17.01.2016 15:36 0,9 C 1,1 C 0,0 C 81 % 0 lf 1026,3 hPa 0,0 l/m 0 min 0 min 16 W/m 6,3 km/h (2 Bft) 97,83 %
17.01.2016 15:38 0,9 C 1,1 C 0,0 C 81 % 0 lf 1026,3 hPa 0,0 l/m 0 min 0 min 16 W/m 6,3 km/h (2 Bft) 97,87 %
17.01.2016 15:40 0,9 C 1,1 C 0,0 C 81 % 0 lf 1026,3 hPa 0,0 l/m 0 min 0 min 16 W/m 8,4 km/h (2 Bft) 95,74 %
17.01.2016 15:42 0,9 C 1,1 C 0,0 C 81 % 0 lf 1026,3 hPa 0,0 l/m 0 min 0 min 17 W/m 6,3 km/h (2 Bft) 97,87 %
17.01.2016 15:44 0,9 C 1,1 C 0,0 C 81 % 0 lf 1026,3 hPa 0,0 l/m 0 min 0 min 18 W/m 4,2 km/h (1 Bft) 97,87 %
17.01.2016 15:46 0,9 C 1,1 C 0,0 C 81 % 0 lf 1026,3 hPa 0,0 l/m 0 min 0 min 19 W/m 10,5 km/h (2 Bft) 97,83 %
17.01.2016 15:48 0,9 C 1,1 C 0,0 C 81 % 0 lf 1026,3 hPa 0,0 l/m 0 min 0 min 21 W/m 10,5 km/h (2 Bft) 91,49 %
17.01.2016 15:50 0,9 C 1,1 C 0,0 C 82 % 0 lf 1026,3 hPa 0,0 l/m 0 min 0 min 22 W/m 8,4 km/h (2 Bft) 95,74 %
17.01.2016 15:52 0,9 C 1,1 C 0,0 C 82 % 0 lf 1026,3 hPa 0,0 l/m 0 min 0 min 25 W/m 6,3 km/h (2 Bft) 95,74 %
17.01.2016 15:54 0,9 C 1,1 C 0,0 C 82 % 0 lf 1026,3 hPa 0,0 l/m 0 min 0 min 26 W/m 6,3 km/h (2 Bft) 95,74 %
17.01.2016 15:56 0,9 C 1,1 C 0,0 C 82 % 0 lf 1026,3 hPa 0,0 l/m 0 min 0 min 28 W/m 6,3 km/h (2 Bft) 95,74 %
17.01.2016 15:58 0,9 C 1,1 C 0,0 C 82 % 0 lf 1026,3 hPa 0,0 l/m 0 min 0 min 27 W/m 6,3 km/h (2 Bft) 91,30 %
17.01.2016 16:00 0,9 C 1,1 C 0,0 C 82 % 0 lf 1026,3 hPa 0,0 l/m 0 min 0 min 26 W/m 6,3 km/h (2 Bft) 95,74 %
17.01.2016 16:02 0,9 C 1,1 C 0,0 C 82 % 0 lf 1026,3 hPa 0,0 l/m 0 min 0 min 26 W/m 6,3 km/h (2 Bft) 95,74 %
17.01.2016 16:04 0,8 C 1,1 C 0,0 C 82 % 0 lf 1026,2 hPa 0,0 l/m 0 min 0 min 25 W/m 4,2 km/h (1 Bft) 95,74 %
17.01.2016 16:06 0,8 C 1,1 C 0,0 C 82 % 0 lf 1026,3 hPa 0,0 l/m 0 min 0 min 25 W/m 4,2 km/h (1 Bft) 91,49 %
17.01.2016 16:08 0,8 C 1,1 C 0,0 C 82 % 0 lf 1026,3 hPa 0,0 l/m 0 min 0 min 23 W/m 6,3 km/h (2 Bft) 97,87 %
17.01.2016 16:10 0,8 C 1,1 C 0,0 C 82 % 0 lf 1026,3 hPa 0,0 l/m 0 min 0 min 23 W/m 6,3 km/h (2 Bft) 97,83 %
17.01.2016 16:12 0,8 C 1,1 C 0,0 C 82 % 0 lf 1026,3 hPa 0,0 l/m 0 min 0 min 21 W/m 6,3 km/h (2 Bft) 95,74 %
17.01.2016 16:14 0,8 C 1,1 C 0,0 C 82 % 0 lf 1026,3 hPa 0,0 l/m 0 min 0 min 21 W/m 6,3 km/h (2 Bft) 97,87 %
17.01.2016 16:16 0,8 C 1,1 C 0,0 C 82 % 0 lf 1026,3 hPa 0,0 l/m 0 min 0 min 19 W/m 6,3 km/h (2 Bft) 93,62 %
17.01.2016 16:18 0,8 C 1,1 C 0,0 C 83 % 0 lf 1026,3 hPa 0,0 l/m 0 min 0 min 19 W/m 4,2 km/h (1 Bft) 97,87 %
17.01.2016 16:20 0,8 C 1,1 C 0,0 C 83 % 0 lf 1026,3 hPa 0,0 l/m 0 min 0 min 19 W/m 4,2 km/h (1 Bft) 100,00 %
17.01.2016 16:22 0,8 C 1,1 C 0,0 C 83 % 0 lf 1026,3 hPa 0,0 l/m 0 min 0 min 19 W/m 4,2 km/h (1 Bft) 97,83 %
17.01.2016 16:24 0,8 C 1,1 C 0,0 C 83 % 0 lf 1026,3 hPa 0,0 l/m 0 min 0 min 19 W/m 2,1 km/h (1 Bft) 93,62 %
17.01.2016 16:26 0,8 C 1,1 C 0,0 C 83 % 0 lf 1026,3 hPa 0,0 l/m 0 min 0 min 19 W/m 4,2 km/h (1 Bft) 100,00 %
17.01.2016 16:28 0,8 C 1,1 C 0,0 C 83 % 0 lf 1026,3 hPa 0,0 l/m 0 min 0 min 19 W/m 4,2 km/h (1 Bft) 97,87 %
17.01.2016 16:30 0,7 C 1,1 C 0,0 C 83 % 0 lf 1026,3 hPa 0,0 l/m 0 min 0 min 18 W/m 2,1 km/h (1 Bft) 97,87 %
17.01.2016 16:32 0,7 C 0,6 C 0,0 C 83 % 0 lf 1026,3 hPa 0,0 l/m 0 min 0 min 17 W/m 2,1 km/h (1 Bft) 95,74 %
17.01.2016 16:34 0,7 C 0,6 C -0,6 C 83 % 0 lf 1026,3 hPa 0,0 l/m 0 min 0 min 16 W/m 4,2 km/h (1 Bft) 100,00 %
17.01.2016 16:36 0,7 C 0,6 C -0,6 C 83 % 0 lf 1026,3 hPa 0,0 l/m 0 min 0 min 15 W/m 4,2 km/h (1 Bft) 100,00 %
17.01.2016 16:38 0,7 C 0,6 C -0,6 C 83 % 0 lf 1026,3 hPa 0,0 l/m 0 min 0 min 14 W/m 4,2 km/h (1 Bft) 95,74 %
17.01.2016 16:40 0,7 C 0,6 C -0,6 C 83 % 0 lf 1026,4 hPa 0,0 l/m 0 min 0 min 14 W/m 4,2 km/h (1 Bft) 100,00 %
17.01.2016 16:42 0,7 C 0,6 C -0,6 C 83 % 0 lf 1026,3 hPa 0,0 l/m 0 min 0 min 12 W/m 4,2 km/h (1 Bft) 100,00 %
17.01.2016 16:44 0,7 C 0,6 C -0,6 C 83 % 0 lf 1026,4 hPa 0,0 l/m 0 min 0 min 12 W/m 4,2 km/h (1 Bft) 95,74 %
17.01.2016 16:46 0,7 C 0,6 C -0,6 C 83 % 0 lf 1026,3 hPa 0,0 l/m 0 min 0 min 12 W/m 6,3 km/h (2 Bft) 97,83 %
17.01.2016 16:48 0,7 C 0,6 C -0,6 C 83 % 0 lf 1026,3 hPa 0,0 l/m 0 min 0 min 11 W/m 2,1 km/h (1 Bft) 95,74 %
17.01.2016 16:50 0,7 C 0,6 C -0,6 C 84 % 0 lf 1026,4 hPa 0,0 l/m 0 min 0 min 11 W/m 2,1 km/h (1 Bft) 97,87 %
17.01.2016 16:52 0,7 C 0,6 C -0,6 C 84 % 0 lf 1026,3 hPa 0,0 l/m 0 min 0 min 11 W/m 0,0 km/h (0 Bft) 97,87 %
17.01.2016 16:54 0,6 C 0,0 C -0,6 C 84 % 0 lf 1026,3 hPa 0,0 l/m 0 min 0 min 9 W/m 0,0 km/h (0 Bft) 93,62 %
17.01.2016 16:56 0,6 C 0,0 C -1,1 C 84 % 0 lf 1026,3 hPa 0,0 l/m 0 min 0 min 9 W/m 0,0 km/h (0 Bft) 93,48 %
17.01.2016 16:58 0,6 C 0,0 C -1,1 C 84 % 0 lf 1026,3 hPa 0,0 l/m 0 min 0 min 9 W/m 0,0 km/h (0 Bft) 97,87 %
17.01.2016 17:00 0,6 C 0,0 C -1,1 C 84 % 0 lf 1026,3 hPa 0,0 l/m 0 min 0 min 7 W/m 0,0 km/h (0 Bft) 95,74 %
17.01.2016 17:02 0,6 C -0,6 C -1,7 C 84 % 0 lf 1026,3 hPa 0,0 l/m 0 min 0 min 7 W/m 0,0 km/h (0 Bft) 97,87 %
17.01.2016 17:04 0,5 C -0,6 C -1,7 C 84 % 0 lf 1026,3 hPa 0,0 l/m 0 min 0 min 7 W/m 0,0 km/h (0 Bft) 97,87 %
17.01.2016 17:06 0,5 C -0,6 C -1,7 C 83 % 0 lf 1026,3 hPa 0,0 l/m 0 min 0 min 6 W/m 0,0 km/h (0 Bft) 95,74 %
17.01.2016 17:08 0,5 C -1,1 C -2,2 C 83 % 0 lf 1026,3 hPa 0,0 l/m 0 min 0 min 5 W/m 0,0 km/h (0 Bft) 95,65 %
17.01.2016 17:10 0,5 C -1,1 C -2,2 C 83 % 0 lf 1026,3 hPa 0,0 l/m 0 min 0 min 5 W/m 0,0 km/h (0 Bft) 95,74 %
17.01.2016 17:12 0,5 C -1,1 C -2,2 C 83 % 0 lf 1026,3 hPa 0,0 l/m 0 min 0 min 4 W/m 0,0 km/h (0 Bft) 97,87 %
17.01.2016 17:14 0,5 C -1,1 C -2,2 C 83 % 0 lf 1026,3 hPa 0,0 l/m 0 min 0 min 0 W/m 0,0 km/h (0 Bft) 93,62 %
17.01.2016 17:16 0,4 C -1,1 C -2,2 C 83 % 0 lf 1026,3 hPa 0,0 l/m 0 min 0 min 0 W/m 0,0 km/h (0 Bft) 97,87 %
17.01.2016 17:18 0,4 C -1,1 C -2,8 C 83 % 0 lf 1026,3 hPa 0,0 l/m 0 min 0 min 0 W/m 0,0 km/h (0 Bft) 95,74 %
17.01.2016 17:20 0,4 C -1,1 C -2,8 C 83 % 0 lf 1026,3 hPa 0,0 l/m 0 min 0 min 0 W/m 0,0 km/h (0 Bft) 95,65 %
17.01.2016 17:22 0,3 C -1,1 C -2,8 C 83 % 0 lf 1026,3 hPa 0,0 l/m 0 min 0 min 0 W/m 0,0 km/h (0 Bft) 95,74 %
17.01.2016 17:24 0,3 C -1,1 C -2,8 C 83 % 0 lf 1026,3 hPa 0,0 l/m 0 min 0 min 0 W/m 0,0 km/h (0 Bft) 97,87 %
17.01.2016 17:26 0,2 C -1,7 C -2,8 C 83 % 0 lf 1026,3 hPa 0,0 l/m 0 min 0 min 0 W/m 0,0 km/h (0 Bft) 100,00 %
17.01.2016 17:28 0,2 C -1,7 C -2,8 C 83 % 0 lf 1026,3 hPa 0,0 l/m 0 min 0 min 0 W/m 0,0 km/h (0 Bft) 97,87 %
17.01.2016 17:30 0,2 C -1,7 C -2,8 C 83 % 0 lf 1026,3 hPa 0,0 l/m 0 min 0 min 0 W/m 0,0 km/h (0 Bft) 97,87 %
17.01.2016 17:32 0,1 C -1,1 C -2,8 C 83 % 0 lf 1026,4 hPa 0,0 l/m 0 min 0 min 0 W/m 0,0 km/h (0 Bft) 100,00 %
17.01.2016 17:34 0,1 C -1,1 C -2,8 C 83 % 0 lf 1026,3 hPa 0,0 l/m 0 min 0 min 0 W/m 0,0 km/h (0 Bft) 97,87 %
17.01.2016 17:36 0,1 C -1,7 C -2,8 C 84 % 0 lf 1026,3 hPa 0,0 l/m 0 min 0 min 0 W/m 0,0 km/h (0 Bft) 95,74 %
17.01.2016 17:38 0,0 C -1,7 C -2,8 C 84 % 0 lf 1026,3 hPa 0,0 l/m 0 min 0 min 0 W/m 0,0 km/h (0 Bft) 100,00 %
17.01.2016 17:40 -0,1 C -1,7 C -3,3 C 84 % 0 lf 1026,3 hPa 0,0 l/m 0 min 0 min 0 W/m 0,0 km/h (0 Bft) 100,00 %
17.01.2016 17:42 -0,1 C -1,7 C -3,3 C 84 % 0 lf 1026,3 hPa 0,0 l/m 0 min 0 min 0 W/m 0,0 km/h (0 Bft) 95,74 %
17.01.2016 17:44 -0,2 C -1,7 C -3,3 C 84 % 0 lf 1026,4 hPa 0,0 l/m 0 min 0 min 0 W/m 0,0 km/h (0 Bft) 95,65 %
17.01.2016 17:46 -0,2 C -1,7 C -3,3 C 84 % 0 lf 1026,3 hPa 0,0 l/m 0 min 0 min 0 W/m 4,2 km/h (1 Bft) 95,74 %
17.01.2016 17:48 -0,3 C -1,7 C -3,3 C 84 % 0 lf 1026,4 hPa 0,0 l/m 0 min 0 min 0 W/m 4,2 km/h (1 Bft) 95,74 %
17.01.2016 17:50 -0,3 C -1,7 C -3,3 C 84 % 0 lf 1026,4 hPa 0,0 l/m 0 min 0 min 0 W/m 4,2 km/h (1 Bft) 95,74 %
17.01.2016 17:52 -0,4 C -1,7 C -3,3 C 84 % 0 lf 1026,3 hPa 0,0 l/m 0 min 0 min 0 W/m 2,1 km/h (1 Bft) 93,62 %
17.01.2016 17:54 -0,4 C -1,7 C -3,3 C 84 % 0 lf 1026,3 hPa 0,0 l/m 0 min 0 min 0 W/m 4,2 km/h (1 Bft) 95,74 %
17.01.2016 17:56 -0,5 C -1,7 C -3,3 C 84 % 0 lf 1026,3 hPa 0,0 l/m 0 min 0 min 0 W/m 4,2 km/h (1 Bft) 93,48 %
17.01.2016 17:58 -0,6 C -1,7 C -3,3 C 84 % 0 lf 1026,3 hPa 0,0 l/m 0 min 0 min 0 W/m 4,2 km/h (1 Bft) 97,87 %
17.01.2016 18:00 -0,6 C -2,2 C -3,3 C 85 % 0 lf 1026,3 hPa 0,0 l/m 0 min 0 min 0 W/m 2,1 km/h (1 Bft) 95,74 %
17.01.2016 18:02 -0,6 C -2,2 C -3,3 C 85 % 0 lf 1026,3 hPa 0,0 l/m 0 min 0 min 0 W/m 2,1 km/h (1 Bft) 95,74 %
17.01.2016 18:04 -0,7 C -2,2 C -3,3 C 84 % 0 lf 1026,3 hPa 0,0 l/m 0 min 0 min 0 W/m 0,0 km/h (0 Bft) 96,30 %
17.01.2016 18:06 -0,7 C -2,2 C -3,3 C 84 % 0 lf 1026,4 hPa 0,0 l/m 0 min 0 min 0 W/m 0,0 km/h (0 Bft) 95,65 %
17.01.2016 18:08 -0,8 C -2,2 C -3,3 C 84 % 0 lf 1026,4 hPa 0,0 l/m 0 min 0 min 0 W/m 0,0 km/h (0 Bft) 95,74 %
17.01.2016 18:10 -0,8 C -2,2 C -3,9 C 84 % 1 lf 1026,3 hPa 0,0 l/m 0 min 0 min 0 W/m 0,0 km/h (0 Bft) 95,74 %
17.01.2016 18:12 -0,9 C -2,2 C -3,9 C 85 % 1 lf 1026,3 hPa 0,0 l/m 0 min 0 min 0 W/m 0,0 km/h (0 Bft) 97,87 %
17.01.2016 18:14 -0,9 C -2,8 C -3,9 C 85 % 0 lf 1026,3 hPa 0,0 l/m 0 min 0 min 0 W/m 0,0 km/h (0 Bft) 93,62 %
17.01.2016 18:16 -1,0 C -2,8 C -3,9 C 85 % 0 lf 1026,3 hPa 0,0 l/m 0 min 0 min 0 W/m 0,0 km/h (0 Bft) 95,65 %
17.01.2016 18:18 -1,1 C -3,3 C -3,9 C 85 % 0 lf 1026,3 hPa 0,0 l/m 0 min 0 min 0 W/m 0,0 km/h (0 Bft) 93,62 %
17.01.2016 18:20 -1,1 C -2,8 C -3,9 C 84 % 0 lf 1026,3 hPa 0,0 l/m 0 min 0 min 0 W/m 0,0 km/h (0 Bft) 93,62 %
17.01.2016 18:22 -1,2 C -2,8 C -3,9 C 84 % 0 lf 1026,3 hPa 0,0 l/m 0 min 0 min 0 W/m 4,2 km/h (1 Bft) 91,49 %
17.01.2016 18:24 -1,2 C -2,2 C -3,9 C 85 % 0 lf 1026,4 hPa 0,0 l/m 0 min 0 min 0 W/m 4,2 km/h (1 Bft) 95,74 %
17.01.2016 18:26 -1,3 C -2,2 C -3,9 C 85 % 0 lf 1026,5 hPa 0,0 l/m 0 min 0 min 0 W/m 4,2 km/h (1 Bft) 95,74 %
17.01.2016 18:28 -1,3 C -2,2 C -3,9 C 85 % 0 lf 1026,5 hPa 0,0 l/m 0 min 0 min 0 W/m 4,2 km/h (1 Bft) 91,30 %
17.01.2016 18:30 -1,4 C -2,8 C -3,9 C 85 % 0 lf 1026,5 hPa 0,0 l/m 0 min 0 min 0 W/m 2,1 km/h (1 Bft) 93,62 %
17.01.2016 18:32 -1,4 C -2,2 C -3,9 C 85 % 0 lf 1026,5 hPa 0,0 l/m 0 min 0 min 0 W/m 2,1 km/h (1 Bft) 93,62 %
17.01.2016 18:34 -1,4 C -2,8 C -3,9 C 85 % 0 lf 1026,5 hPa 0,0 l/m 0 min 0 min 0 W/m 2,1 km/h (1 Bft) 95,74 %
17.01.2016 18:36 -1,5 C -2,8 C -3,9 C 86 % 0 lf 1026,5 hPa 0,0 l/m 0 min 0 min 0 W/m 2,1 km/h (1 Bft) 93,62 %
17.01.2016 18:38 -1,6 C -2,8 C -3,9 C 85 % 0 lf 1026,5 hPa 0,0 l/m 0 min 0 min 0 W/m 0,0 km/h (0 Bft) 89,36 %
17.01.2016 18:40 -1,6 C -3,3 C -3,9 C 85 % 0 lf 1026,5 hPa 0,0 l/m 0 min 0 min 0 W/m 0,0 km/h (0 Bft) 95,65 %
17.01.2016 18:42 -1,6 C -3,3 C -3,9 C 86 % 0 lf 1026,5 hPa 0,0 l/m 0 min 0 min 0 W/m 0,0 km/h (0 Bft) 95,74 %
17.01.2016 18:44 -1,7 C -3,3 C -3,9 C 86 % 0 lf 1026,5 hPa 0,0 l/m 0 min 0 min 0 W/m 0,0 km/h (0 Bft) 95,74 %
17.01.2016 18:46 -1,7 C -3,3 C -3,9 C 86 % 0 lf 1026,6 hPa 0,0 l/m 0 min 0 min 0 W/m 0,0 km/h (0 Bft) 95,74 %
17.01.2016 18:48 -1,8 C -3,3 C -3,9 C 86 % 0 lf 1026,6 hPa 0,0 l/m 0 min 0 min 0 W/m 0,0 km/h (0 Bft) 95,74 %
17.01.2016 18:50 -1,8 C -3,3 C -3,9 C 86 % 0 lf 1026,6 hPa 0,0 l/m 0 min 0 min 0 W/m 0,0 km/h (0 Bft) 95,74 %
17.01.2016 18:52 -1,8 C -3,3 C -3,9 C 86 % 0 lf 1026,6 hPa 0,0 l/m 0 min 0 min 0 W/m 4,2 km/h (1 Bft) 97,83 %
17.01.2016 18:54 -1,9 C -2,8 C -3,9 C 86 % 0 lf 1026,6 hPa 0,0 l/m 0 min 0 min 0 W/m 4,2 km/h (1 Bft) 95,74 %
17.01.2016 18:56 -1,9 C -2,8 C -3,9 C 86 % 0 lf 1026,7 hPa 0,0 l/m 0 min 0 min 0 W/m 4,2 km/h (1 Bft) 89,36 %
17.01.2016 18:58 -2,0 C -2,8 C -3,9 C 86 % 0 lf 1026,6 hPa 0,0 l/m 0 min 0 min 0 W/m 4,2 km/h (1 Bft) 95,74 %
17.01.2016 19:00 -2,0 C -2,8 C -3,9 C 86 % 0 lf 1026,7 hPa 0,0 l/m 0 min 0 min 0 W/m 4,2 km/h (1 Bft) 93,62 %
17.01.2016 19:02 -2,1 C -2,8 C -3,9 C 86 % 0 lf 1026,7 hPa 0,0 l/m 0 min 0 min 0 W/m 2,1 km/h (1 Bft) 95,65 %
17.01.2016 19:04 -2,1 C -3,3 C -3,9 C 86 % 0 lf 1026,7 hPa 0,0 l/m 0 min 0 min 0 W/m 2,1 km/h (1 Bft) 91,49 %
17.01.2016 19:06 -2,1 C -3,3 C -4,4 C 86 % 0 lf 1026,7 hPa 0,0 l/m 0 min 0 min 0 W/m 2,1 km/h (1 Bft) 93,62 %
17.01.2016 19:08 -2,2 C -3,3 C -4,4 C 86 % 0 lf 1026,7 hPa 0,0 l/m 0 min 0 min 0 W/m 2,1 km/h (1 Bft) 93,62 %
17.01.2016 19:10 -2,2 C -3,3 C -4,4 C 87 % 0 lf 1026,7 hPa 0,0 l/m 0 min 0 min 0 W/m 2,1 km/h (1 Bft) 93,62 %
17.01.2016 19:12 -2,2 C -3,9 C -4,4 C 86 % 0 lf 1026,7 hPa 0,0 l/m 0 min 0 min 0 W/m 2,1 km/h (1 Bft) 93,62 %
17.01.2016 19:14 -2,3 C -3,3 C -4,4 C 86 % 0 lf 1026,7 hPa 0,0 l/m 0 min 0 min 0 W/m 2,1 km/h (1 Bft) 91,30 %
17.01.2016 19:16 -2,3 C -3,9 C -4,4 C 87 % 0 lf 1026,7 hPa 0,0 l/m 0 min 0 min 0 W/m 0,0 km/h (0 Bft) 97,87 %
17.01.2016 19:18 -2,3 C -3,9 C -4,4 C 87 % 0 lf 1026,7 hPa 0,0 l/m 0 min 0 min 0 W/m 0,0 km/h (0 Bft) 95,74 %
17.01.2016 19:20 -2,4 C -3,9 C -4,4 C 87 % 0 lf 1026,6 hPa 0,0 l/m 0 min 0 min 0 W/m 0,0 km/h (0 Bft) 93,62 %
17.01.2016 19:22 -2,4 C -3,9 C -4,4 C 87 % 0 lf 1026,7 hPa 0,0 l/m 0 min 0 min 0 W/m 0,0 km/h (0 Bft) 95,74 %
17.01.2016 19:24 -2,4 C -3,9 C -4,4 C 87 % 0 lf 1026,7 hPa 0,0 l/m 0 min 0 min 0 W/m 2,1 km/h (1 Bft) 93,62 %
17.01.2016 19:26 -2,4 C -3,9 C -4,4 C 87 % 0 lf 1026,7 hPa 0,0 l/m 0 min 0 min 0 W/m 2,1 km/h (1 Bft) 97,83 %
17.01.2016 19:28 -2,5 C -3,9 C -4,4 C 87 % 0 lf 1026,7 hPa 0,0 l/m 0 min 0 min 0 W/m 0,0 km/h (0 Bft) 95,74 %
17.01.2016 19:30 -2,5 C -3,9 C -4,4 C 87 % 0 lf 1026,5 hPa 0,0 l/m 0 min 0 min 0 W/m 0,0 km/h (0 Bft) 89,36 %
17.01.2016 19:32 -2,6 C -3,9 C -4,4 C 87 % 0 lf 1026,6 hPa 0,0 l/m 0 min 0 min 0 W/m 0,0 km/h (0 Bft) 95,74 %
17.01.2016 19:34 -2,6 C -3,9 C -4,4 C 87 % 0 lf 1026,6 hPa 0,0 l/m 0 min 0 min 0 W/m 0,0 km/h (0 Bft) 95,74 %
17.01.2016 19:36 -2,6 C -3,9 C -4,4 C 87 % 0 lf 1026,5 hPa 0,0 l/m 0 min 0 min 0 W/m 0,0 km/h (0 Bft) 95,74 %
17.01.2016 19:38 -2,6 C -4,4 C -4,4 C 87 % 0 lf 1026,5 hPa 0,0 l/m 0 min 0 min 0 W/m 0,0 km/h (0 Bft) 95,65 %
17.01.2016 19:40 -2,6 C -4,4 C -4,4 C 87 % 0 lf 1026,6 hPa 0,0 l/m 0 min 0 min 0 W/m 0,0 km/h (0 Bft) 93,62 %
17.01.2016 19:42 -2,7 C -4,4 C -4,4 C 87 % 0 lf 1026,5 hPa 0,0 l/m 0 min 0 min 0 W/m 0,0 km/h (0 Bft) 97,87 %
17.01.2016 19:44 -2,7 C -4,4 C -4,4 C 87 % 0 lf 1026,5 hPa 0,0 l/m 0 min 0 min 0 W/m 0,0 km/h (0 Bft) 97,87 %
17.01.2016 19:46 -2,7 C -4,4 C -4,4 C 87 % 0 lf 1026,5 hPa 0,0 l/m 0 min 0 min 0 W/m 0,0 km/h (0 Bft) 97,87 %
17.01.2016 19:48 -2,7 C -4,4 C -4,4 C 87 % 0 lf 1026,5 hPa 0,0 l/m 0 min 0 min 0 W/m 0,0 km/h (0 Bft) 97,87 %
17.01.2016 19:50 -2,8 C -4,4 C -4,4 C 87 % 0 lf 1026,4 hPa 0,0 l/m 0 min 0 min 0 W/m 0,0 km/h (0 Bft) 95,65 %
17.01.2016 19:52 -2,8 C -4,4 C -4,4 C 87 % 0 lf 1026,4 hPa 0,0 l/m 0 min 0 min 0 W/m 0,0 km/h (0 Bft) 95,74 %
17.01.2016 19:54 -2,8 C -4,4 C -4,4 C 87 % 0 lf 1026,4 hPa 0,0 l/m 0 min 0 min 0 W/m 0,0 km/h (0 Bft) 97,87 %
17.01.2016 19:56 -2,8 C -4,4 C -5,0 C 87 % 0 lf 1026,4 hPa 0,0 l/m 0 min 0 min 0 W/m 0,0 km/h (0 Bft) 95,74 %
17.01.2016 19:58 -2,9 C -4,4 C -5,0 C 88 % 0 lf 1026,5 hPa 0,0 l/m 0 min 0 min 0 W/m 0,0 km/h (0 Bft) 95,74 %
17.01.2016 20:00 -2,9 C -4,4 C -5,0 C 88 % 0 lf 1026,4 hPa 0,0 l/m 0 min 0 min 0 W/m 0,0 km/h (0 Bft) 100,00 %
17.01.2016 20:02 -2,9 C -4,4 C -5,0 C 88 % 0 lf 1026,4 hPa 0,0 l/m 0 min 0 min 0 W/m 0,0 km/h (0 Bft) 100,00 %
17.01.2016 20:04 -3,0 C -4,4 C -5,0 C 88 % 0 lf 1026,4 hPa 0,0 l/m 0 min 0 min 0 W/m 0,0 km/h (0 Bft) 97,87 %
17.01.2016 20:06 -3,0 C -3,9 C -5,0 C 88 % 0 lf 1026,4 hPa 0,0 l/m 0 min 0 min 0 W/m 0,0 km/h (0 Bft) 100,00 %
17.01.2016 20:08 -3,1 C -3,9 C -5,0 C 88 % 0 lf 1026,4 hPa 0,0 l/m 0 min 0 min 0 W/m 0,0 km/h (0 Bft) 95,74 %
17.01.2016 20:10 -3,1 C -4,4 C -5,0 C 88 % 0 lf 1026,4 hPa 0,0 l/m 0 min 0 min 0 W/m 0,0 km/h (0 Bft) 100,00 %
17.01.2016 20:12 -3,1 C -4,4 C -5,0 C 88 % 0 lf 1026,4 hPa 0,0 l/m 0 min 0 min 0 W/m 0,0 km/h (0 Bft) 100,00 %
17.01.2016 20:14 -3,1 C -4,4 C -5,0 C 88 % 0 lf 1026,4 hPa 0,0 l/m 0 min 0 min 0 W/m 0,0 km/h (0 Bft) 100,00 %
17.01.2016 20:16 -3,2 C -4,4 C -5,0 C 88 % 0 lf 1026,4 hPa 0,0 l/m 0 min 0 min 0 W/m 0,0 km/h (0 Bft) 97,87 %
17.01.2016 20:18 -3,2 C -4,4 C -5,0 C 88 % 0 lf 1026,4 hPa 0,0 l/m 0 min 0 min 0 W/m 0,0 km/h (0 Bft) 97,92 %
17.01.2016 20:20 -3,2 C -4,4 C -5,0 C 88 % 0 lf 1026,4 hPa 0,0 l/m 0 min 0 min 0 W/m 0,0 km/h (0 Bft) 100,00 %
17.01.2016 20:22 -3,2 C -4,4 C -5,0 C 88 % 0 lf 1026,5 hPa 0,0 l/m 0 min 0 min 0 W/m 0,0 km/h (0 Bft) 95,74 %
17.01.2016 20:24 -3,3 C -4,4 C -5,0 C 88 % 0 lf 1026,4 hPa 0,0 l/m 0 min 0 min 0 W/m 0,0 km/h (0 Bft) 100,00 %
17.01.2016 20:26 -3,3 C -3,9 C -5,0 C 88 % 0 lf 1026,3 hPa 0,0 l/m 0 min 0 min 0 W/m 0,0 km/h (0 Bft) 100,00 %
17.01.2016 20:28 -3,3 C -3,9 C -5,0 C 88 % 0 lf 1026,4 hPa 0,0 l/m 0 min 0 min 0 W/m 0,0 km/h (0 Bft) 100,00 %
17.01.2016 20:30 -3,3 C -3,9 C -5,0 C 88 % 0 lf 1026,4 hPa 0,0 l/m 0 min 0 min 0 W/m 0,0 km/h (0 Bft) 100,00 %
17.01.2016 20:32 -3,3 C -3,9 C -5,0 C 88 % 0 lf 1026,4 hPa 0,0 l/m 0 min 0 min 0 W/m 0,0 km/h (0 Bft) 95,74 %
17.01.2016 20:34 -3,4 C -3,9 C -5,0 C 89 % 0 lf 1026,3 hPa 0,0 l/m 0 min 0 min 0 W/m 0,0 km/h (0 Bft) 100,00 %
17.01.2016 20:36 -3,4 C -4,4 C -5,0 C 89 % 0 lf 1026,3 hPa 0,0 l/m 0 min 0 min 0 W/m 0,0 km/h (0 Bft) 100,00 %
17.01.2016 20:38 -3,4 C -3,9 C -5,0 C 89 % 0 lf 1026,3 hPa 0,0 l/m 0 min 0 min 0 W/m 0,0 km/h (0 Bft) 95,74 %
17.01.2016 20:40 -3,4 C -4,4 C -5,0 C 89 % 0 lf 1026,4 hPa 0,0 l/m 0 min 0 min 0 W/m 0,0 km/h (0 Bft) 97,87 %
17.01.2016 20:42 -3,5 C -4,4 C -5,0 C 89 % 0 lf 1026,4 hPa 0,0 l/m 0 min 0 min 0 W/m 0,0 km/h (0 Bft) 100,00 %
17.01.2016 20:44 -3,5 C -4,4 C -5,0 C 89 % 0 lf 1026,3 hPa 0,0 l/m 0 min 0 min 0 W/m 0,0 km/h (0 Bft) 100,00 %
17.01.2016 20:46 -3,5 C -4,4 C -5,0 C 89 % 0 lf 1026,3 hPa 0,0 l/m 0 min 0 min 0 W/m 0,0 km/h (0 Bft) 100,00 %
17.01.2016 20:48 -3,6 C -4,4 C -5,0 C 89 % 0 lf 1026,3 hPa 0,0 l/m 0 min 0 min 0 W/m 0,0 km/h (0 Bft) 95,74 %
17.01.2016 20:50 -3,6 C -3,9 C -5,0 C 89 % 0 lf 1026,3 hPa 0,0 l/m 0 min 0 min 0 W/m 0,0 km/h (0 Bft) 100,00 %
17.01.2016 20:52 -3,6 C -4,4 C -5,0 C 89 % 0 lf 1026,3 hPa 0,0 l/m 0 min 0 min 0 W/m 0,0 km/h (0 Bft) 100,00 %
17.01.2016 20:54 -3,6 C -4,4 C -5,0 C 89 % 0 lf 1026,4 hPa 0,0 l/m 0 min 0 min 0 W/m 0,0 km/h (0 Bft) 97,87 %
17.01.2016 20:56 -3,6 C -4,4 C -5,0 C 89 % 0 lf 1026,4 hPa 0,0 l/m 0 min 0 min 0 W/m 0,0 km/h (0 Bft) 95,74 %
17.01.2016 20:58 -3,6 C -4,4 C -5,0 C 89 % 0 lf 1026,4 hPa 0,0 l/m 0 min 0 min 0 W/m 0,0 km/h (0 Bft) 100,00 %
17.01.2016 21:00 -3,7 C -4,4 C -5,0 C 89 % 0 lf 1026,3 hPa 0,0 l/m 0 min 0 min 0 W/m 0,0 km/h (0 Bft) 100,00 %
17.01.2016 21:02 -3,7 C -4,4 C -5,0 C 89 % 0 lf 1026,3 hPa 0,0 l/m 0 min 0 min 0 W/m 0,0 km/h (0 Bft) 100,00 %
17.01.2016 21:04 -3,7 C -4,4 C -5,0 C 89 % 0 lf 1026,3 hPa 0,0 l/m 0 min 0 min 0 W/m 0,0 km/h (0 Bft) 97,87 %
17.01.2016 21:06 -3,7 C -5,0 C -5,6 C 89 % 0 lf 1026,3 hPa 0,0 l/m 0 min 0 min 0 W/m 0,0 km/h (0 Bft) 100,00 %
17.01.2016 21:08 -3,8 C -5,0 C -5,6 C 90 % 0 lf 1026,3 hPa 0,0 l/m 0 min 0 min 0 W/m 0,0 km/h (0 Bft) 97,87 %
17.01.2016 21:10 -3,8 C -4,4 C -5,6 C 89 % 0 lf 1026,3 hPa 0,0 l/m 0 min 0 min 0 W/m 0,0 km/h (0 Bft) 95,65 %
17.01.2016 21:12 -3,8 C -5,0 C -5,6 C 89 % 0 lf 1026,4 hPa 0,0 l/m 0 min 0 min 0 W/m 0,0 km/h (0 Bft) 95,74 %
17.01.2016 21:14 -3,8 C -5,0 C -5,6 C 90 % 0 lf 1026,4 hPa 0,0 l/m 0 min 0 min 0 W/m 0,0 km/h (0 Bft) 97,87 %
17.01.2016 21:16 -3,8 C -5,0 C -5,6 C 90 % 0 lf 1026,4 hPa 0,0 l/m 0 min 0 min 0 W/m 0,0 km/h (0 Bft) 97,87 %
17.01.2016 21:18 -3,9 C -5,0 C -5,6 C 90 % 0 lf 1026,3 hPa 0,0 l/m 0 min 0 min 0 W/m 0,0 km/h (0 Bft) 91,49 %
17.01.2016 21:20 -3,9 C -5,0 C -5,6 C 90 % 0 lf 1026,3 hPa 0,0 l/m 0 min 0 min 0 W/m 0,0 km/h (0 Bft) 95,74 %
17.01.2016 21:22 -3,9 C -4,4 C -5,6 C 90 % 0 lf 1026,3 hPa 0,0 l/m 0 min 0 min 0 W/m 0,0 km/h (0 Bft) 95,65 %
17.01.2016 21:24 -3,9 C -4,4 C -5,6 C 90 % 0 lf 1026,3 hPa 0,0 l/m 0 min 0 min 0 W/m 0,0 km/h (0 Bft) 97,87 %
17.01.2016 21:26 -3,9 C -4,4 C -5,6 C 90 % 0 lf 1026,2 hPa 0,0 l/m 0 min 0 min 0 W/m 0,0 km/h (0 Bft) 91,49 %
17.01.2016 21:28 -3,9 C -4,4 C -5,6 C 90 % 0 lf 1026,3 hPa 0,0 l/m 0 min 0 min 0 W/m 0,0 km/h (0 Bft) 93,62 %
17.01.2016 21:30 -4,0 C -5,0 C -5,6 C 90 % 0 lf 1026,3 hPa 0,0 l/m 0 min 0 min 0 W/m 0,0 km/h (0 Bft) 95,74 %
17.01.2016 21:32 -4,0 C -5,0 C -5,6 C 90 % 0 lf 1026,2 hPa 0,0 l/m 0 min 0 min 0 W/m 0,0 km/h (0 Bft) 93,62 %
17.01.2016 21:34 -4,0 C -5,0 C -5,6 C 90 % 0 lf 1026,2 hPa 0,0 l/m 0 min 0 min 0 W/m 0,0 km/h (0 Bft) 95,65 %
17.01.2016 21:36 -4,0 C -5,6 C -5,6 C 90 % 0 lf 1026,2 hPa 0,0 l/m 0 min 0 min 0 W/m 0,0 km/h (0 Bft) 95,74 %
17.01.2016 21:38 -4,1 C -5,6 C -5,6 C 90 % 0 lf 1026,1 hPa 0,0 l/m 0 min 0 min 0 W/m 0,0 km/h (0 Bft) 95,74 %
17.01.2016 21:40 -4,1 C -5,6 C -5,6 C 90 % 0 lf 1026,1 hPa 0,0 l/m 0 min 0 min 0 W/m 0,0 km/h (0 Bft) 97,87 %
17.01.2016 21:42 -4,1 C -5,6 C -5,6 C 90 % 0 lf 1026,1 hPa 0,0 l/m 0 min 0 min 0 W/m 0,0 km/h (0 Bft) 97,87 %
17.01.2016 21:44 -4,1 C -5,6 C -5,6 C 90 % 0 lf 1026,1 hPa 0,0 l/m 0 min 0 min 0 W/m 2,1 km/h (1 Bft) 95,74 %
17.01.2016 21:46 -4,1 C -5,6 C -5,6 C 91 % 0 lf 1026,1 hPa 0,0 l/m 0 min 0 min 0 W/m 0,0 km/h (0 Bft) 95,65 %
17.01.2016 21:48 -4,1 C -5,6 C -5,6 C 90 % 0 lf 1026,1 hPa 0,0 l/m 0 min 0 min 0 W/m 0,0 km/h (0 Bft) 95,74 %
17.01.2016 21:50 -4,1 C -5,6 C -5,6 C 90 % 0 lf 1026,0 hPa 0,0 l/m 0 min 0 min 0 W/m 0,0 km/h (0 Bft) 91,49 %
17.01.2016 21:52 -4,1 C -5,0 C -5,6 C 90 % 0 lf 1026,1 hPa 0,0 l/m 0 min 0 min 0 W/m 0,0 km/h (0 Bft) 97,87 %
17.01.2016 21:54 -4,1 C -5,0 C -5,6 C 90 % 0 lf 1026,1 hPa 0,0 l/m 0 min 0 min 0 W/m 0,0 km/h (0 Bft) 95,74 %
17.01.2016 21:56 -4,1 C -5,0 C -5,6 C 90 % 0 lf 1026,0 hPa 0,0 l/m 0 min 0 min 0 W/m 0,0 km/h (0 Bft) 94,87 %
17.01.2016 21:58 -4,2 C -5,0 C -5,6 C 91 % 0 lf 1026,0 hPa 0,0 l/m 0 min 0 min 0 W/m 0,0 km/h (0 Bft) 93,48 %
17.01.2016 22:00 -4,2 C -5,6 C -5,6 C 91 % 0 lf 1026,0 hPa 0,0 l/m 0 min 0 min 0 W/m 0,0 km/h (0 Bft) 95,74 %
17.01.2016 22:02 -4,2 C -5,0 C -5,6 C 91 % 0 lf 1025,9 hPa 0,0 l/m 0 min 0 min 0 W/m 0,0 km/h (0 Bft) 95,74 %
17.01.2016 22:04 -4,2 C -5,0 C -5,6 C 91 % 0 lf 1025,9 hPa 0,0 l/m 0 min 0 min 0 W/m 0,0 km/h (0 Bft) 97,87 %
17.01.2016 22:06 -4,2 C -4,4 C -5,6 C 91 % 0 lf 1025,9 hPa 0,0 l/m 0 min 0 min 0 W/m 0,0 km/h (0 Bft) 97,87 %
17.01.2016 22:08 -4,2 C -4,4 C -5,6 C 91 % 0 lf 1025,9 hPa 0,0 l/m 0 min 0 min 0 W/m 0,0 km/h (0 Bft) 97,87 %
17.01.2016 22:10 -4,3 C -4,4 C -5,6 C 91 % 0 lf 1025,8 hPa 0,0 l/m 0 min 0 min 0 W/m 0,0 km/h (0 Bft) 93,62 %
17.01.2016 22:12 -4,3 C -4,4 C -5,6 C 91 % 0 lf 1025,8 hPa 0,0 l/m 0 min 0 min 0 W/m 0,0 km/h (0 Bft) 95,65 %
17.01.2016 22:14 -4,3 C -4,4 C -5,6 C 91 % 0 lf 1025,8 hPa 0,0 l/m 0 min 0 min 0 W/m 0,0 km/h (0 Bft) 97,87 %
17.01.2016 22:16 -4,3 C -4,4 C -5,6 C 91 % 0 lf 1025,8 hPa 0,0 l/m 0 min 0 min 0 W/m 0,0 km/h (0 Bft) 97,87 %
17.01.2016 22:18 -4,3 C -4,4 C -5,6 C 91 % 0 lf 1025,8 hPa 0,0 l/m 0 min 0 min 0 W/m 0,0 km/h (0 Bft) 97,87 %
17.01.2016 22:20 -4,3 C -4,4 C -5,6 C 91 % 0 lf 1025,8 hPa 0,0 l/m 0 min 0 min 0 W/m 0,0 km/h (0 Bft) 95,74 %
17.01.2016 22:22 -4,3 C -4,4 C -5,6 C 91 % 0 lf 1025,8 hPa 0,0 l/m 0 min 0 min 0 W/m 0,0 km/h (0 Bft) 95,65 %
17.01.2016 22:24 -4,3 C -4,4 C -5,6 C 91 % 0 lf 1025,8 hPa 0,0 l/m 0 min 0 min 0 W/m 0,0 km/h (0 Bft) 93,62 %
17.01.2016 22:26 -4,3 C -4,4 C -5,6 C 91 % 0 lf 1025,8 hPa 0,0 l/m 0 min 0 min 0 W/m 0,0 km/h (0 Bft) 95,74 %
17.01.2016 22:28 -4,3 C -4,4 C -5,6 C 91 % 0 lf 1025,8 hPa 0,0 l/m 0 min 0 min 0 W/m 0,0 km/h (0 Bft) 95,74 %
17.01.2016 22:30 -4,3 C -4,4 C -5,6 C 92 % 0 lf 1025,8 hPa 0,0 l/m 0 min 0 min 0 W/m 0,0 km/h (0 Bft) 95,74 %
17.01.2016 22:32 -4,3 C -4,4 C -5,6 C 92 % 0 lf 1025,8 hPa 0,0 l/m 0 min 0 min 0 W/m 4,2 km/h (1 Bft) 95,74 %
17.01.2016 22:34 -4,3 C -4,4 C -5,6 C 92 % 0 lf 1025,8 hPa 0,0 l/m 0 min 0 min 0 W/m 2,1 km/h (1 Bft) 97,83 %
17.01.2016 22:36 -4,3 C -4,4 C -5,6 C 92 % 0 lf 1025,9 hPa 0,0 l/m 0 min 0 min 0 W/m 2,1 km/h (1 Bft) 89,36 %
17.01.2016 22:38 -4,3 C -5,0 C -5,6 C 92 % 0 lf 1025,8 hPa 0,0 l/m 0 min 0 min 0 W/m 2,1 km/h (1 Bft) 97,87 %
17.01.2016 22:40 -4,3 C -5,0 C -5,6 C 92 % 0 lf 1025,9 hPa 0,0 l/m 0 min 0 min 0 W/m 0,0 km/h (0 Bft) 91,49 %
17.01.2016 22:42 -4,3 C -5,0 C -5,6 C 92 % 0 lf 1025,8 hPa 0,0 l/m 0 min 0 min 0 W/m 0,0 km/h (0 Bft) 97,87 %
17.01.2016 22:44 -4,3 C -5,0 C -5,6 C 92 % 0 lf 1025,8 hPa 0,0 l/m 0 min 0 min 0 W/m 0,0 km/h (0 Bft) 100,00 %
17.01.2016 22:46 -4,3 C -5,0 C -6,1 C 92 % 0 lf 1025,8 hPa 0,0 l/m 0 min 0 min 0 W/m 2,1 km/h (1 Bft) 97,83 %
17.01.2016 22:48 -4,3 C -5,0 C -5,6 C 92 % 0 lf 1025,8 hPa 0,0 l/m 0 min 0 min 0 W/m 4,2 km/h (1 Bft) 97,87 %
17.01.2016 22:50 -4,3 C -5,0 C -5,6 C 92 % 0 lf 1025,8 hPa 0,0 l/m 0 min 0 min 0 W/m 0,0 km/h (0 Bft) 95,74 %
17.01.2016 22:52 -4,3 C -5,0 C -5,6 C 92 % 0 lf 1025,8 hPa 0,0 l/m 0 min 0 min 0 W/m 0,0 km/h (0 Bft) 100,00 %
17.01.2016 22:54 -4,3 C -5,0 C -6,1 C 92 % 0 lf 1025,7 hPa 0,0 l/m 0 min 0 min 0 W/m 0,0 km/h (0 Bft) 100,00 %
17.01.2016 22:56 -4,4 C -5,0 C -6,1 C 92 % 0 lf 1025,7 hPa 0,0 l/m 0 min 0 min 0 W/m 0,0 km/h (0 Bft) 95,74 %
17.01.2016 22:59 -4,4 C -5,6 C -6,1 C 92 % 0 lf 1025,7 hPa 0,0 l/m 0 min 0 min 0 W/m 0,0 km/h (0 Bft) 97,53 %
17.01.2016 23:00 -4,4 C -5,6 C -6,1 C 92 % 0 lf 1025,7 hPa 0,0 l/m 0 min 0 min 0 W/m 0,0 km/h (0 Bft) 100,00 %
17.01.2016 23:02 -4,4 C -5,6 C -6,1 C 92 % 0 lf 1025,7 hPa 0,0 l/m 0 min 0 min 0 W/m 0,0 km/h (0 Bft) 97,87 %
17.01.2016 23:04 -4,4 C -5,6 C -6,1 C 92 % 0 lf 1025,7 hPa 0,0 l/m 0 min 0 min 0 W/m 0,0 km/h (0 Bft) 98,21 %
17.01.2016 23:06 -4,4 C -5,0 C -6,1 C 92 % 0 lf 1025,7 hPa 0,0 l/m 0 min 0 min 0 W/m 0,0 km/h (0 Bft) 95,65 %
17.01.2016 23:08 -4,4 C -5,0 C -6,1 C 92 % 0 lf 1025,7 hPa 0,0 l/m 0 min 0 min 0 W/m 0,0 km/h (0 Bft) 95,74 %
17.01.2016 23:10 -4,4 C -5,0 C -6,1 C 92 % 0 lf 1025,7 hPa 0,0 l/m 0 min 0 min 0 W/m 0,0 km/h (0 Bft) 93,62 %
17.01.2016 23:12 -4,5 C -5,0 C -6,1 C 92 % 0 lf 1025,6 hPa 0,0 l/m 0 min 0 min 0 W/m 0,0 km/h (0 Bft) 91,49 %
17.01.2016 23:14 -4,5 C -5,0 C -6,1 C 92 % 0 lf 1025,7 hPa 0,0 l/m 0 min 0 min 0 W/m 0,0 km/h (0 Bft) 95,74 %
17.01.2016 23:16 -4,5 C -5,0 C -6,1 C 92 % 0 lf 1025,6 hPa 0,0 l/m 0 min 0 min 0 W/m 0,0 km/h (0 Bft) 95,74 %
17.01.2016 23:18 -4,5 C -5,0 C -6,1 C 92 % 0 lf 1025,6 hPa 0,0 l/m 0 min 0 min 0 W/m 0,0 km/h (0 Bft) 95,65 %
17.01.2016 23:20 -4,6 C -5,0 C -6,1 C 92 % 0 lf 1025,6 hPa 0,0 l/m 0 min 0 min 0 W/m 0,0 km/h (0 Bft) 93,62 %
17.01.2016 23:22 -4,5 C -5,0 C -6,1 C 92 % 0 lf 1025,6 hPa 0,0 l/m 0 min 0 min 0 W/m 0,0 km/h (0 Bft) 95,74 %
17.01.2016 23:24 -4,6 C -5,0 C -6,1 C 92 % 0 lf 1025,6 hPa 0,0 l/m 0 min 0 min 0 W/m 0,0 km/h (0 Bft) 93,62 %
17.01.2016 23:26 -4,6 C -5,0 C -6,1 C 92 % 0 lf 1025,5 hPa 0,0 l/m 0 min 0 min 0 W/m 0,0 km/h (0 Bft) 93,62 %
17.01.2016 23:28 -4,6 C -5,6 C -6,1 C 92 % 0 lf 1025,4 hPa 0,0 l/m 0 min 0 min 0 W/m 0,0 km/h (0 Bft) 95,74 %
17.01.2016 23:30 -4,6 C -5,6 C -6,1 C 92 % 0 lf 1025,5 hPa 0,0 l/m 0 min 0 min 0 W/m 0,0 km/h (0 Bft) 93,48 %
17.01.2016 23:32 -4,6 C -5,6 C -6,1 C 93 % 0 lf 1025,5 hPa 0,0 l/m 0 min 0 min 0 W/m 0,0 km/h (0 Bft) 95,74 %
17.01.2016 23:34 -4,6 C -5,6 C -6,1 C 93 % 0 lf 1025,5 hPa 0,0 l/m 0 min 0 min 0 W/m 0,0 km/h (0 Bft) 97,87 %
17.01.2016 23:36 -4,6 C -5,6 C -6,1 C 93 % 0 lf 1025,5 hPa 0,0 l/m 0 min 0 min 0 W/m 0,0 km/h (0 Bft) 95,74 %
17.01.2016 23:38 -4,6 C -5,6 C -5,6 C 93 % 0 lf 1025,5 hPa 0,0 l/m 0 min 0 min 0 W/m 0,0 km/h (0 Bft) 93,62 %
17.01.2016 23:40 -4,7 C -5,6 C -5,6 C 92 % 0 lf 1025,5 hPa 0,0 l/m 0 min 0 min 0 W/m 0,0 km/h (0 Bft) 91,49 %
17.01.2016 23:42 -4,7 C -5,6 C -6,1 C 92 % 0 lf 1025,5 hPa 0,0 l/m 0 min 0 min 0 W/m 0,0 km/h (0 Bft) 95,65 %
17.01.2016 23:44 -4,7 C -6,1 C -6,1 C 92 % 0 lf 1025,6 hPa 0,0 l/m 0 min 0 min 0 W/m 0,0 km/h (0 Bft) 93,62 %
17.01.2016 23:46 -4,7 C -6,1 C -6,1 C 92 % 0 lf 1025,4 hPa 0,0 l/m 0 min 0 min 0 W/m 0,0 km/h (0 Bft) 95,74 %
17.01.2016 23:48 -4,7 C -6,1 C -6,1 C 92 % 0 lf 1025,4 hPa 0,0 l/m 0 min 0 min 0 W/m 0,0 km/h (0 Bft) 93,62 %
17.01.2016 23:50 -4,7 C -6,1 C -6,1 C 93 % 0 lf 1025,5 hPa 0,0 l/m 0 min 0 min 0 W/m 0,0 km/h (0 Bft) 95,74 %
17.01.2016 23:52 -4,7 C -6,1 C -6,1 C 93 % 0 lf 1025,4 hPa 0,0 l/m 0 min 0 min 0 W/m 0,0 km/h (0 Bft) 95,65 %
17.01.2016 23:54 -4,7 C -5,6 C -6,1 C 93 % 0 lf 1025,5 hPa 0,0 l/m 0 min 0 min 0 W/m 0,0 km/h (0 Bft) 93,62 %
17.01.2016 23:56 -4,7 C -5,6 C -6,1 C 93 % 0 lf 1025,5 hPa 0,0 l/m 0 min 0 min 0 W/m 0,0 km/h (0 Bft) 95,74 %
17.01.2016 23:58 -4,7 C -5,6 C -6,1 C 93 % 0 lf 1025,5 hPa 0,0 l/m 0 min 0 min 0 W/m 0,0 km/h (0 Bft) 93,62 %
_ Min-Zeit 23:40 23:44 22:46 14:58 06:12 01:40 - - - - 16:52 11:10
Minimum _ -4,7 C -6,1 C -6,1 C 81 % 0 lf 1021,5 hPa - - - - 0,0 km/h (0 Bft) 87,23 %
_ Max-Zeit 13:02 12:00 13:00 00:40 00:00 18:56 11:42 09:10 01:16 12:14 06:48 00:44
Maximum _ 1,3 C 10,6 C 1,1 C 95 % 15 lf 1026,7 hPa 0,2 l/m 2 min 2 min 311 W/m 39,7 km/h
N (6 Bft)
100,00 %
Durchschnitt _ -0,8 C -0,4 C -2,1 C 90 % 3 lf 1024,6 hPa #0,2 l/m #3:38 h #24 min. 106 W/m 9,9 km/h (2 Bft) 96,15 %
© 2016 W. Hausmann